     2              OBSERVATION DATA    GPS                 RINEX VERSION / TYPE
teqc 1998Mar9 19980907 20:16:39UTC                          PGM / RUN BY / DATE
                                                            COMMENT
BIT 2 OF LLI FLAGS DATA COLLECTED UNDER A-S CONDITION       COMMENT
BIT 2 OF LLI FLAGS DATA COLLECTED UNDER A-S CONDITION       COMMENT
Original Marker Name: YAM2                                  COMMENT
Campaign Name: Ventura Basin 1992                           COMMENT
4-Character Station Name: YAM2                              COMMENT
6-Character Antenna Code: TRMSST                            COMMENT
Vertical Measurement Point: BGP                             COMMENT
Vertical Offset to Rinex Ref. Point: 0.0597                 COMMENT
Radial Measurement Point: NGP                               COMMENT
Radial Offset to Rinex Ref. Point: 0.2334                   COMMENT
Antenna Height from Field Measurement: 1.0985 m             COMMENT
Original XYZ: 6378875.0000 0.0000 0.0000                    COMMENT
New XYZ position is based on association with SCEC monument COMMENT
E1E9T4C4+0011. Position of that monument is believed to be  COMMENT
valid to within 1 m horizontally; vertical accuracy         COMMENT
should be no worse than 3-times this value.                 COMMENT
                                                            COMMENT
Revised Rinex header created by UCSD GPS archive for        COMMENT
GSAC on 14-Apr-1999 (1999:104) 00:19:48 GMT                 COMMENT
For assistance contact dagnew@ucsd.edu or hjohnson@ucsd.edu COMMENT
                                                            COMMENT
USGS ELEV. 2749 FT                                          MARKER NAME
UNKNOWN OBSERVER MIT                                        OBSERVER / AGENCY
617 TRIMBLE 4000 SST NP 4.57 / SP 4.20                      REC # / TYPE / VERS
S/N UNKNOWN TR 4000SST L1/L2 GEO                            ANT # / TYPE
 -2579283.0000 -4561761.0000  3624916.0000                  APPROX POSITION XYZ
        1.0137        0.0000        0.0000                  ANTENNA: DELTA H/E/N
     1     1     0                                          WAVELENGTH FACT L1/2
     3    C1    L1    L2                                    # / TYPES OF OBSERV
     0                                                      INTERVAL
  1992     5    27    17    53    0.000000                  TIME OF FIRST OBS
  1992     5    27    22    57   30.000000                  TIME OF LAST OBS
                                                            END OF HEADER
 92  5 27 17 53  0.0000000  0  5G 2G18G16G11G19
  21674616.6804         -0.30557
  22127397.6484         -0.85257
  23738609.9064         -0.36155
  23199912.5394         -0.91556
  21142758.2034         -0.60057
 92  5 27 17 53 30.0000000  0  5G 2G18G16G11G19
  21661121.1954     -70920.49247        -0.09173
  22139842.8444      65401.08547        -0.27272
  23737856.469       -3944.368 5
  23198282.5084      -8578.22646        -0.40371
  21142910.148         804.140 7
 92  5 27 17 54  0.0000000  0  5G 2G18G16G11G19
  21647706.0784    -141420.33847    -54934.97663
  22152365.3834     131216.91247     51284.65862
  23737224.203       -7300.158 5        -0.24631
  23196784.9064     -16453.97246     -6137.35461
  21143128.1254       1936.72547        -0.12572
 92  5 27 17 54 30.0000000  0  5G 2G18G16G11G19
  21634367.906     -211517.563 7   -109556.14423
  22164967.4224     197429.99047    102879.13362
  23736690.836      -10082.419 5     -2168.31921
  23195417.3204     -23632.96346    -11731.38061
  21143402.047        3396.500 7      1137.34022
 92  5 27 17 55  0.0000000  0  5G 2G18G16G11G19
  21621099.766     -281239.705 7   -163885.03423
  22177644.6414     264046.38647    154787.87862
  23736270.7274     -12287.24445     -3886.41061
  23194188.2894     -30104.13646    -16773.86861
  21143740.906        5177.185 6      2524.86322
 92  5 27 17 55 30.0000000  0  5G 2G18G16G11G19
  21607899.570     -350599.193 7   -217931.33623
  22190393.8054     331047.01747    206996.03562
  23735955.727      -13928.464 5     -5165.32121
  23193088.5944     -35879.36546    -21274.04961
  21144142.4614       7275.40246      4159.81962
 92  5 27 17 56  0.0000000  0  5G 2G18G16G11G19
  21594774.523     -419575.845 7   -271679.32123
  22203218.6414     398442.40947    259511.78562
  23735754.516      -15011.857 5     -6009.57921
  23192118.5004     -40961.47946    -25234.13561
  21144602.570        9693.934 7      6044.35522
 92  5 27 17 56 30.0000000  0  5G 2G18G16G11G19
  21581724.367     -488156.267 7   -325118.55823
  22216120.4534     466246.90347    312346.32662
  23735647.305      -15535.335 5
  23191285.6024     -45348.79546    -28652.83761
  21145121.6174      12427.57547      8174.43762
 92  5 27 17 57  0.0000000  0  5G 2G18G16G11G19
  21568753.4224    -556318.27047   -378231.75563
  22229102.727      534470.569 7    365507.47622
  23735658.0314     -15481.35845
  23190580.3284     -49038.28246    -31527.77061
  21145704.039       15483.826 7     10555.90622
 92  5 27 17 57 30.0000000  0  5G 2G18G16G11G19
  21555865.7584    -624044.79247   -431005.61963
  22242168.8674     603124.06547    419003.57161
  23735782.438      -14849.145 5
  23190010.4304     -52034.74146    -33862.68461
  21146350.781       18866.133 6     13191.43122
 92  5 27 17 58  0.0000000  0  5G 2G18G16G11G19
  21543057.4064    -691343.99847   -483446.50463
  22255311.703      672202.494 7    472830.79021
  23736011.336      -13637.589 5     -4938.95621
  23189573.469      -54338.429 6    -35657.78621
  21147052.7664      22563.75446     16072.66162
 92  5 27 17 58 30.0000000  0  5G 2G18G16G11G19
  21530328.531     -758244.818 7   -535576.97323
  22268535.6564     741684.73147    526972.65161
  23736354.805      -11855.796 5     -3550.61121
  23189266.898      -55953.712 6    -36916.47521
  21147812.406       26575.848 6     19198.94022
 92  5 27 17 59  0.0000000  0  5G 2G18G16G11G19
  21517676.406     -824738.552 7   -587390.22023
  22281835.289      811576.845 6    581433.88421
  23736800.445       -9485.484 5     -1703.68121
  23189095.7584     -56861.12246    -37623.55561
  21148641.891       30922.169 7     22585.64922
 92  5 27 17 59 30.0000000  0  5G 2G18G16G11G19
  21505093.602     -890854.087 7   -638908.76923
  22295204.984      881839.355 7    636183.74021
  23737356.766       -6571.123 5       567.20021
  23189048.680      -57091.803 6
  21149523.375       35559.951 7     26199.47622
 92  5 27 18  0  0.0000000  0  5G 2G18G16G11G19
  21492584.055     -956583.985 7   -690126.83023
  22308644.6644     952463.09447    691215.08361
  23738012.9614      -3106.02945      3267.22661
  23189136.1334     -56633.16446
  21150466.656       40507.975 7     30055.04522
 92  5 27 18  0 30.0000000  0  5G 2G18G16G11G19
  21480150.289    -1021928.452 7   -741044.55023
  22322153.4454    1023449.36447    746528.91261
  23738782.6564        899.51845      6388.36561
  23189356.8524     -55486.99846    -36552.86961
  21151468.1484      45776.33947     34160.23462
 92  5 27 18  1  0.0000000  0  5G 2G18G16G11G19
  21467790.305    -1086879.503 7   -791655.71723
  22335733.227     1094806.514 7    802131.73821
  23739648.7344       5438.77745      9925.39361
  23189700.9534     -53658.15946    -35127.82161
  21152531.000       51360.895 6     38511.80522
 92  5 27 18  1 30.0000000  0  5G 2G18G16G11G19
  21455506.156    -1151435.476 7   -841959.03723
  22349384.6484    1166545.01446    858031.71961
  23740607.3834      10510.65745     13877.46661
  23190185.0474     -51136.97546    -33163.27561
  21153658.1564      57281.13447     43124.95562
 92  5 27 18  2  0.0000000  0  5G 2G18G16G11G19
  21443291.0394   -1215623.90747   -891975.97363
  22363107.2344    1238659.19546    914224.44061
  23741670.570       16102.419 5     18234.62021
  23190796.836      -47931.040 6    -30665.16821
  21154847.570       63538.412 7     48000.71922
 92  5 27 18  2 30.0000000  0  5G 2G18G16G11G19
  21431145.328    -1279445.816 7   -941707.28823
  22376903.133     1311158.082 6    970716.92721
  23742834.508       22205.110 5     22989.92121
  23191531.0554     -44050.17246    -27641.12761
  21156100.141       70107.762 7     53119.66622
 92  5 27 18  3  0.0000000  0  5G 2G18G16G11G19
  21419074.117    -1342890.504 7   -991144.66623
  22390771.672     1384026.828 6   1027497.61921
  23744090.0704      28827.40945
  23192400.9384     -39498.32246    -24094.27361
  21157406.500       76976.509 7
 92  5 27 18  3 30.0000000  0  5G 2G18G16G11G19
  21407074.438    -1405947.295 7  -1040279.79823
  22404706.219     1457263.164 6   1084564.72721
  23745454.867       35984.096 5
  23193392.1724     -34270.14646    -20020.38661
  21158771.539       84148.292 6
 92  5 27 18  4  0.0000000  0  5G 2G18G16G11G19
  21395154.0084   -1468585.81147  -1089088.99463
  22418715.797     1530881.402 6   1141929.43721
  23746921.773       43693.745 5     39734.12721
  23194518.430      -28360.691 6    -15415.64221
  21160194.430       91625.306 6     69886.47222
 92  5 27 18  4 30.0000000  0  5G 2G18G16G11G19
  21383315.867    -1530795.161 7  -1137563.76423
  22432796.273     1604872.644 6   1199584.79521
  23748495.9384      51966.44645     46180.31461
  23195771.2974     -21773.25246    -10282.59061
  21161671.547       99401.184 6     75945.56222
 92  5 27 18  5  0.0000000  0  5G 2G18G16G11G19
  21371556.023    -1592592.083 7  -1185717.18323
  22446944.156     1679225.618 6   1257522.02321
  23750179.1484      60797.66045     53061.69161
  23197154.906      -14508.097 6     -4621.45421
  21163212.031      107485.012 7     82244.59522
 92  5 27 18  5 30.0000000  0  5G 2G18G16G11G19
  21359870.672    -1654004.087 7  -1233570.65523
  22461164.797     1753940.436 6   1315741.20321
  23751965.977       70170.299 5     60364.98521
  23198665.531       -6573.895 6      1561.00721
  21164805.195      115862.298 6     88772.31622
 92  5 27 18  6  0.0000000  0  5G 2G18G16G11G19
  21348251.359    -1715059.407 7  -1281146.19123
  22475447.773     1829008.445 6   1374235.59721
  23753842.7974      80070.64445     68079.47661
  23200297.7894       2021.57446
  21166453.930      124520.503 6
 92  5 27 18  6 30.0000000  0  5G 2G18G16G11G19
  21336697.406    -1775777.215 7  -1328458.73423
  22489799.391     1904422.599 6   1432999.71021
  23755829.2114      90489.71645     76198.15261
  23202061.3364      11279.64146     15472.81861
  21168157.3134     133468.87546    102491.63262
 92  5 27 18  7  0.0000000  0  5G 2G18G16G11G19
  21325208.445    -1836157.953 7  -1375508.63123
  22504215.977     1980186.687 6   1492036.50321
  23757908.5004     101418.07845     84713.68061
  23203950.6024      21202.56546     23204.95561
  21169918.3284     142721.68146    109701.58062
 92  5 27 18  7 30.0000000  0  5G 2G18G16G11G19
  21313785.289    -1896185.797 7  -1422283.54023
  22518700.367     2056295.224 6   1551341.69421
  23760082.5704     112844.21945     93617.10161
  23205965.3054      31790.74046     31455.47961
  21171737.500      152287.420 6    117155.36722
 92  5 27 18  8  0.0000000  0  5G 2G18G16G11G19
  21302431.797    -1955850.842 7  -1468775.75323
  22533246.109     2132725.634 6   1610897.71021
  23762345.1024     124743.85345    102889.46361
  23208104.3524      43036.32246     40218.25861
  21173621.859      162183.624 6    124866.66022
 92  5 27 18  8 30.0000000  0  5G 2G18G16G11G19
  21291149.664    -2015132.341 7  -1514969.09823
  22547846.156     2209465.139 6   1670694.56721
  23764695.8284     137104.85145    112521.33261
  23210368.2894      54935.30846     49490.19461
  21175565.844      172409.739 6    132835.03422
 92  5 27 18  9  0.0000000  0  5G 2G18G16G11G19
  21279946.523    -2074019.590 7  -1560855.22723
  22562507.984     2286507.265 6   1730727.23121
  23767139.648      149922.755 5
  23212759.1024      67484.50446
  21177575.867      182960.261 6    141056.18522
 92  5 27 18  9 30.0000000  0  5G 2G18G16G11G19
  21268809.469    -2132519.970 7  -1606439.90023
  22577227.0394    2363848.65846   1790993.09561
  23769664.8674     163198.09745
  23215270.1954      80679.87146
  21179640.5394     193831.15446    149526.99162
 92  5 27 18 10  0.0000000  0  5G 2G18G16G11G19
  21257754.086    -2190631.336 7  -1651721.43823
  22592003.883     2441508.118 6   1851506.79021
  23772280.570      176964.497 5
  23217904.0784      94528.30146
  21181777.1564     205027.64746    158251.50162
 92  5 27 18 10 30.0000000  0  5G 2G18G16G11G19
  21246766.938    -2248364.444 7  -1696708.24223
  22606844.461     2519499.635 6   1912279.24521
  23775004.430      191249.827 5         0.00031
  23220660.6564     109026.85846     91639.41661
  21183966.656      216534.695 6    167218.00122
 92  5 27 18 11  0.0000000  0  5G 2G18G16G11G19
  21235849.148    -2305737.874 7  -1741414.76723
  22621747.453     2597815.369 6   1973304.32721
  23777823.4844     206053.61145     11535.34661
  23223545.0394     124165.99846    103436.13461
  21186210.945      228349.115 6    176424.01622
 92  5 27 18 11 30.0000000  0  5G 2G18G16G11G19
  21224998.414    -2362754.034 7  -1785842.90523
  22636713.2424    2676457.51046   2034583.74561
  23780733.867      221376.013 5     23474.79021
  23226548.6174     139947.24846    115733.20661
  21188519.789      240469.251 7    185868.25222
 92  5 27 18 12  0.0000000  0  5G 2G18G16G11G19
  21214217.8524   -2419411.79847  -1829991.76063
  22651737.914     2755415.476 6   2096109.26621
  23783748.859      237196.683 5     35802.51221
  23229672.3444     156362.38646    128524.20961
  21190879.539      252875.956 7    195535.79222
 92  5 27 18 12 30.0000000  0  5G 2G18G16G11G19
  21203500.750    -2475720.618 7  -1873868.71123
  22666821.9694    2834678.92246   2157872.81561
  23786848.5164     253492.47745     48500.45661
  23232913.0864     173411.53846    141809.26561
  21193293.242      265570.953 6    205427.98022
 92  5 27 18 13  0.0000000  0  5G 2G18G16G11G19
  21192852.039    -2531691.569 7  -1917482.39123
  22681961.7114    2914240.63146   2219868.78061
  23790032.2344     270240.07045     61550.46661
  23236280.7114     191096.10446    155589.43961
  21195764.6174     278554.83946    215545.27362
 92  5 27 18 13 30.0000000  0  5G 2G18G16G11G19
  21182262.102    -2587331.189 7  -1960837.89823
  22697161.6724    2994107.51346   2282102.53561
  23793308.727      287432.137 5     74946.80421
  23239766.0314     209415.83346    169864.55861
  21198290.0944     291825.99146    225886.41262
 92  5 27 18 14  0.0000000  0  5G 2G18G16G11G19
  21171741.719    -2642627.874 7  -2003926.18123
  22712420.3054    3074297.48446   2344588.04861
  23796664.109      305101.722 5     88715.26121
  23243373.5784     228385.93246    184646.44361
  21200876.2034     305401.85347    236464.97562
 92  5 27 18 14 30.0000000  0  5G 2G18G16G11G19
  21161280.164    -2697597.518 7  -2046759.62823
  22727739.7114    3154791.13746   2407310.20161
  23800123.055      323251.169 5    102857.61921
  23247105.5704     247990.56346    199922.75361
  21203515.414      319277.849 6    247277.41122
 92  5 27 18 15  0.0000000  0  5G 2G18G16G11G19
  21150887.602    -2752214.897 7  -2089318.57323
  22743112.8914    3235585.48146   2470266.64061
  23803673.539      341879.964 5    117373.48321
  23250954.3134     268225.19346    215689.99561
  21206209.781      333445.921 6    258317.44122
 92  5 27 18 15 30.0000000  0  5G 2G18G16G11G19
  21140563.383    -2806465.318 7  -2131591.58523
  22758543.0704    3316669.37246   2533448.71161
  23807307.172      360988.352 5    132263.04121
  23254926.9614     289083.57946    231943.28661
  21208965.1724     347912.32246    269589.93762
 92  5 27 18 16  0.0000000  0  5G 2G18G16G11G19
  21130315.3524   -2860312.01147  -2173550.00063
  22774030.820     3398049.283 6   2596861.44221
  23811038.9384     380590.68345    147537.46961
  23259017.102      310578.886 6    248692.86021
  21211777.094      362693.558 6    281107.74922
 92  5 27 18 16 30.0000000  0  5G 2G18G16G11G19
  21120151.008    -2913738.833 7  -2215181.24723
  22789569.7664    3479720.17846   2660500.92461
  23814853.7034     400665.83345    163180.37961
  23263229.500      332711.777 6    265939.28721
  21214649.984      377793.614 6    292874.00522
 92  5 27 18 17  0.0000000  0  5G 2G18G16G11G19
  21110063.375    -2966744.021 7  -2256483.94223
  22805171.6954    3561694.42646   2724376.77461
  23818761.1724     421202.28345    179182.72761
  23267563.7894     355486.25246    283685.61661
  21217582.680      393209.226 6    304886.14022
 92  5 27 18 17 30.0000000  0  5G 2G18G16G11G19
  21100057.094    -3019323.910 7  -2297455.24023
  22820831.1884    3643994.40546   2788506.44361
  23822765.2974     442226.51945    195565.17661
  23272021.8594     378924.33746    301949.04861
  21220582.219      408962.059 6    317161.04022
 92  5 27 18 18  0.0000000  0  5G 2G18G16G11G19
  21090131.352    -3071490.811 7  -2338104.72323
  22836553.063     3726610.246 6   2852882.22921
  23826850.508      463722.330 5    212315.08321
  23276607.6644     403016.19646    320721.92461
  21223639.328      425033.253 7    329684.01022
 92  5 27 18 18 30.0000000  0  5G 2G18G16G11G19
  21080277.5314   -3123273.18647  -2378454.57863
  22852332.4694    3809535.24246   2917498.91461
  23831023.305      485670.298 5    229417.31721
  23281314.7504     427758.19946    340001.39161
  21226757.398      441418.243 6    342451.50022
 92  5 27 18 19  0.0000000  0  5G 2G18G16G11G19
  21070492.922    -3174690.237 7  -2418519.76523
  22868171.773     3892759.414 6   2982348.73021
  23835290.7664     508066.78245    246869.04161
  23286146.563      453144.426 6    359782.85621
  21229938.484      458123.878 6    355468.84122
 92  5 27 18 19 30.0000000  0  5G 2G18G16G11G19
  21060774.438    -3225760.650 7  -2458314.85023
  22884056.3914    3976241.35546   3047399.39461
  23839637.9614     530896.53445    264658.39061
  23291095.1484     479155.68246    380051.36161
  21233174.664      475144.615 6    368731.71422
 92  5 27 18 20  0.0000000  0  5G 2G18G16G11G19
  21051121.078    -3276494.927 8  -2497848.00323
  22899989.555     4059970.235 6   3112642.48821
  23844062.445      554151.720 5    282779.20621
  23296163.117      505786.244 6    400802.43221
  21236477.016      492487.893 6    382245.90922
 92  5 27 18 20 29.9990000  0  5G 2G18G16G11G19
  21041525.745    -3326910.422 7  -2537132.75623
  22915966.1674    4143932.16946   3178067.18061
  23848564.230      577821.507 5    301223.10521
  23301346.5654     533019.05146    422022.79161
  21239837.269      510145.072 6    396004.71222
 92  5 27 18 20 59.9990000  0  5G 2G18G16G11G19
  21031992.776    -3377008.892 7  -2576170.48623
  22931989.534     4228125.804 6   3243672.40821
  23853151.0114     601914.11645    319996.46561
  23306641.269      560838.563 6    443700.31121
  21243253.7454     528106.52147    410000.59462
 92  5 27 18 21 29.9990000  0  5G 2G18G16G11G19
  21022523.558    -3426774.427 8  -2614948.78623
  22948056.6444    4312568.23646   3309471.49561
  23857818.7764     626437.39445    339105.44661
  23312045.5974     589254.45246    465842.54261
  21246730.440      546378.291 7    424238.28322
 92  5 27 18 21 59.9990000  0  5G 2G18G16G11G19
  21013115.331    -3476210.215 8  -2653470.13723
  22964175.972     4397269.647 6   3375472.39321
  23862562.8864     651382.60245    358543.19761
  23317568.0034     618255.81646    488440.97961
  21250264.308      564947.681 7    438707.88822
 92  5 27 18 22 29.9990000  0  5G 2G18G16G11G19
  21003771.026    -3525308.748 7  -2691728.69423
  22980340.440     4482219.772 6   3441667.08821
  23867390.831      676734.985 5    378298.21321
  23323196.409      647832.656 6    511487.83821
  21253854.909      583807.046 6    453403.45922
 92  5 27 18 22 59.9990000  0  5G 2G18G16G11G19
  20994492.815    -3574067.876 7  -2729722.79023
  22996553.214     4567409.358 6   3508048.38921
  23872292.4094     702486.75445    398364.43061
  23328931.8004     677982.40546    534981.12261
  21257497.503      602946.776 6    468317.49322
 92  5 27 18 23 29.9990000  0  5G 2G18G16G11G19
  20985278.956    -3622489.678 8  -2767454.01023
  23012807.034     4652829.413 6   3574609.25821
  23877265.394      728631.290 5    418736.70921
  23334775.292      708709.781 6    558924.50421
  21261192.9094     622369.79247    483452.24962
 92  5 27 18 23 59.9990000  0  5G 2G18G16G11G19
  20976131.448    -3670559.733 7  -2804911.16023
  23029107.870     4738480.965 6   3641350.50321
  23882316.417      755179.445 5    439423.49021
  23340737.964      740021.983 6    583323.58821
  21264940.4174     642073.43047    498805.68262
 92  5 27 18 24 29.9990000  0  5G 2G18G16G11G19
  20967047.222    -3718295.465 7  -2842107.79723
  23045444.964     4824343.130 6   3708255.89521
  23887438.5034     782113.93645    460411.32861
  23346805.534      771912.522 6    608173.33821
  21268740.362      662046.053 7    514368.72522
 92  5 27 18 24 59.9990000  0  5G 2G18G16G11G19
  20958021.909    -3765725.458 7  -2879066.18623
  23061825.815     4910411.983 6   3775322.32221
  23892630.8554     809425.12744    481692.69461
  23352984.355      804371.634 6    633466.12321
  21272590.745      682273.373 7    530130.21722
 92  5 27 18 25 29.9990000  0  5G 2G18G16G11G19
  20949054.605    -3812841.873 7  -2915780.24323
  23078242.823     4996699.386 6   3842559.03621
  23897899.2614     837118.46344    503271.79761
  23359268.495      837407.643 6    659208.42921
  21276493.448      702777.071 7    546107.08022
 92  5 27 18 25 59.9990000  0  5G 2G18G16G11G19
  20940145.167    -3859661.588 7  -2952263.08823
  23094702.050     5083186.333 6   3909951.24921
  23903250.1984     865178.55545    525136.72461
  23365660.3944     871003.54346    685387.03361
  21280446.573      723540.665 7    562286.46122
 92  5 27 18 26 29.9990000  0  5G 2G18G16G11G19
  20931292.417    -3906184.302 8  -2988514.51123
  23111199.925     5169872.166 6   3977498.43121
  23908659.7224     893608.66444    547289.98461
  23372164.355      905161.459 6    712003.57221
  21284447.972      744581.493 7    578681.88622
 92  5 27 18 26 59.9990000  0  5G 2G18G16G11G19
  20922499.159    -3952401.295 8  -3024527.70923
  23127732.3154    5256756.15846   4045200.03561
  23914127.737      922412.642 4    569734.54521
  23378768.948      939872.525 6    739051.13721
  21288505.440      765902.080 6    595295.29522
 92  5 27 18 27 29.9990000  0  5G 2G18G16G11G19
  20913765.245    -3998293.850 7  -3060288.09623
  23144303.0034    5343831.24746   4113050.52761
  23919692.2454     951612.42844    592487.52761
  23385477.5894     975141.06746    766533.10161
  21292616.5894     787507.45147    612130.62262
 92  5 27 18 27 59.9990000  0  5G 2G18G16G11G19
  20905095.433    -4043857.886 8  -3095792.49623
  23160906.7764    5431100.60145   4181052.39961
  23925330.7694     981215.47944    615554.73461
  23392296.753     1010970.697 6    794452.26921
  21296785.214      809400.528 7    629190.13822
 92  5 27 18 28 29.9990000  0  5G 2G18G16G11G19
  20896488.222    -4089088.975 8  -3131037.46223
  23177557.9014    5518578.77946   4249216.97661
  23931040.730     1011207.361 4    638924.91821
  23399223.230     1047359.533 6    822807.19421
  21301006.331      831588.710 6    646479.60922
 92  5 27 18 28 59.9990000  0  5G 2G18G16G11G19
  20887941.448    -4133991.369 7  -3166026.30423
  23194242.6674    5606267.14446   4317545.32861
  23936822.628     1041578.240 5    662590.42721
  23406251.6124    1084304.83146    851595.71861
  21305283.300      854068.282 7    663996.13022
 92  5 27 18 29 29.9990000  0  5G 2G18G16G11G19
  20879456.597    -4178581.177 8  -3200771.56323
  23210967.7694    5694150.05846   4386025.28861
  23942663.698     1072300.223 5    686529.54621
  23413385.847     1121799.850 6    880812.59121
  21309616.1674     876830.55647    681732.95762
 92  5 27 18 29 59.9990000  0  5G 2G18G16G11G19
  20871032.628    -4222855.094 8  -3235270.67923
  23227731.0894    5782241.20146   4454667.50761
  23948566.347     1103351.646 4    710725.34821
  23420627.315     1159844.170 6    910457.48221
  21314001.636      899884.959 7    699697.40322
 92  5 27 18 30 29.9990000  0  5G 2G18G16G11G19
  20862667.776    -4266813.028 8  -3269523.57723
  23244533.331     5870538.798 6   4523470.60521
  23954547.300     1134742.476 5    735185.62521
  23427969.730     1198439.878 6    940532.03421
  21318446.6204     923236.85547    717893.67262
 92  5 27 18 30 59.9990000  0  5G 2G18G16G11G19
  20854362.112    -4310464.700 8  -3303537.82723
  23261372.714     5959026.854 6   4592422.09321
  23960590.2764    1166484.00645    759919.15361
  23435419.3784    1237582.38046    971032.65461
  21322944.5114     946873.58247    736311.88262
 92  5 27 18 31 29.9990000  0  5G 2G18G16G11G19
  20846112.636    -4353815.298 8  -3337317.47423
  23278247.9484    6047705.82846   4661522.32661
  23966690.5114    1198573.81245    784924.09461
  23442969.839     1277263.020 6   1001952.62121
  21327497.0814     970787.70447    754946.23862
 92  5 27 18 31 59.9990000  0  5G 2G18G16G11G19
  20837918.862    -4396867.695 8  -3370864.76423
  23295159.175     6136581.506 6   4730775.86921
  23972870.097     1231035.289 5    810218.61621
  23450625.167     1317480.171 6   1033290.62721
  21332099.5814     994983.16046    773799.82662
 92  5 27 18 32 29.9990000  0  5G 2G18G16G11G19
  20829782.730    -4439626.811 8  -3404183.52323
  23312107.909     6225640.849 6   4800172.49621
  23979115.1674    1263871.24445    835804.97061
  23458379.511     1358235.875 6   1065048.29021
  21336755.690     1019449.519 7    792864.49222
 92  5 27 18 32 59.9990000  0  5G 2G18G16G11G19
  20821705.222    -4482079.306 8  -3437263.34723
  23329090.6904    6314891.69746   4869718.35161
  23985431.573     1297059.405 5    861665.72421
  23466238.276     1399534.399 6   1097228.93821
  21341463.761     1044181.978 6    812136.51722
 92  5 27 18 33 29.9990000  0  5G 2G18G16G11G19
  20813683.105    -4524235.298 8  -3470112.14823
  23346109.9254    6404318.34846   4939401.18961
  23991814.7694    1330573.30645    887780.30861
  23474197.7844    1441358.13046   1129818.83161
  21346218.0264    1069180.95546    831616.21462
 92  5 27 18 33 59.9990000  0  5G 2G18G16G11G19
  20805720.050    -4566076.144 8  -3502715.34923
  23363159.7224    6493927.19846   5009226.00761
  23998257.026     1364423.849 5    914157.24521
  23482260.4644    1483723.70446   1162830.95061
  21351030.042     1094466.620 7    851319.30622
 92  5 27 18 34 29.9990000  0  5G 2G18G16G11G19
  20797819.886    -4607596.019 8  -3535068.46423
  23380243.534     6583691.704 6   5079172.11321
  24004754.3944    1398570.49945    940764.92561
  23490418.917     1526616.249 6   1196253.68121
  21355893.565     1120028.540 6    871237.64622
 92  5 27 18 34 59.9990000  0  5G 2G18G16G11G19
  20789979.862    -4648793.264 8  -3567170.17923
  23397355.5504    6673607.77646   5149236.31461
  24011302.6204    1433013.58745    967603.57461
  23498682.1444    1570024.29846   1230078.10761
  21360814.7694    1145879.67146    891381.35162
 92  5 27 18 35 29.9990000  0  5G 2G18G16G11G19
  20782201.042    -4689669.614 8  -3599021.83923
  23414494.2844    6763673.99746   5219417.53061
  24017926.972     1467776.120 5    994691.13321
  23507039.581     1613947.014 6   1264303.57821
  21365792.269     1172031.153 7    911759.09422
 92  5 27 18 35 59.9990000  0  5G 2G18G16G11G19
  20774484.261    -4730219.611 7  -3630619.19823
  23431659.440     6853877.527 6   5289705.69921
  24024594.073     1502853.391 5   1022023.91821
  23515495.870     1658385.914 6   1298931.28021
  21370821.956     1198476.709 6    932365.98222
 92  5 27 18 36 29.9990000  0  5G 2G18G16G11G19
  20766829.261    -4770444.793 7  -3661963.46023
  23448851.776     6944218.695 6   5360101.13821
  24031330.6674    1538248.38045   1049604.26361
  23524051.886     1703338.471 6   1333959.21921
  21375910.159     1225212.778 7    953199.22822
 92  5 27 18 36 59.9990000  0  5G 2G18G16G11G19
  20759234.019    -4810361.860 8  -3693067.64023
  23466072.964     7034719.634 6   5430621.09421
  24038129.722     1573984.263 5   1077450.22321
  23532705.034     1748809.480 6   1369391.15521
  21381053.198     1252247.023 7    974264.83322
 92  5 27 18 37 29.9990000  0  5G 2G18G16G11G19
  20751692.589    -4849993.533 7  -3723949.43423
  23483320.894     7125360.233 6   5501249.84321
  24044995.034     1610050.324 5   1105553.46221
  23541452.730     1794788.354 6   1405218.82421
  21386252.050     1279557.319 7    995545.53222
 92  5 27 18 37 59.9990000  0  5G 2G18G16G11G19
  20744200.409    -4889365.950 8  -3754629.21823
  23500589.4014    7216112.80645   5571965.85861
  24051916.550     1646408.255 5   1133884.17121
  23550291.862     1841253.541 6   1441425.42821
  21391498.440     1307126.416 7   1017027.91122
 92  5 27 18 38 29.9990000  0  5G 2G18G16G11G19
  20736756.948    -4928482.351 8  -3785109.49823
  23517885.9804    7307004.68645   5642790.42761
  24058894.4014    1683080.15845   1162459.52761
  23559233.073     1888214.673 6   1478018.49321
  21396795.940     1334962.686 6   1038718.48422
 92  5 27 18 38 59.9990000  0  5G 2G18G16G11G19
  20729362.558    -4967333.731 8  -3815383.27023
  23535207.7694    7398035.91245   5713723.54161
  24065928.847     1720063.305 5   1191277.40021
  23568262.2304    1935680.88346   1515005.12861
  21402145.230     1363070.839 7   1060620.89522
 92  5 27 18 39 29.9990000  0  5G 2G18G16G11G19
  20722022.5424   -5005904.49948  -3845438.39663
  23552555.8154    7489192.68245   5784754.51261
  24073022.323     1757333.953 5   1220319.33821
  23577390.4564    1983642.09646   1552377.47061
  21407542.5034    1391440.77946   1082727.30162
 92  5 27 18 39 59.9990000  0  5G 2G18G16G11G19
  20714741.144    -5044177.632 8  -3875261.57923
  23569932.261     7580497.913 5   5855901.14421
  24080178.909     1794886.727 5   1249581.14421
  23586613.284     2032101.959 6   1590138.37621
  21412993.175     1420084.667 6   1105047.17622
 92  5 27 18 40 29.9990000  0  5G 2G18G16G11G19
  20707514.940    -5082137.666 8  -3904840.79223
  23587335.8234    7671960.24445   5927170.18661
  24087375.003     1832730.520 5   1279069.68921
  23595927.4094    2081059.62446   1628287.17661
  21418496.456     1449005.590 7   1127582.89622
 92  5 27 18 40 59.9990000  0  5G 2G18G16G11G19
  20700354.3944   -5119770.46848  -3934165.02463
  23604769.7924    7763567.64845   5998552.27661
  24094629.620     1870846.697 5   1308770.51921
  23605337.995     2130509.604 6   1666819.58921
  21424055.589     1478212.651 7   1150341.59922
 92  5 27 18 41 29.9990000  0  5G 2G18G16G11G19
  20693252.4254   -5157095.58848  -3963249.51163
  23622230.3704    7855315.26845   6070043.64561
  24101929.9014    1909226.35445   1338676.64861
  23614840.347     2180435.955 6   1705723.21021
  21429667.144     1507703.013 6   1173321.05322
 92  5 27 18 41 59.9990000  0  5G 2G18G16G11G19
  20686202.597    -5194139.830 8  -3992115.12823
  23639711.7694    7947188.96645   6141633.22861
  24109287.034     1947868.342 5   1368787.15021
  23624429.808     2230833.619 6   1744994.08921
  21435333.464     1537471.587 7   1196517.29522
 92  5 27 18 42 29.9990000  0  5G 2G18G16G11G19
  20679206.8234   -5230903.68148  -4020762.25563
  23657214.6124    8039166.57545   6213303.78761
  24116687.0584    1986767.23444   1399097.88461
  23634108.261     2281702.126 6   1784631.84221
  21441048.7304    1567517.42447   1219929.57662
 92  5 27 18 42 59.9990000  0  5G 2G18G16G11G19
  20672263.065    -5267385.037 8  -4049189.25323
  23674735.3704    8131233.60345   6285044.00361
  24124134.659     2025934.308 4   1429617.52121
  23643881.214     2333046.788 6   1824640.64321
  21446816.4254    1597842.59547   1243559.52762
 92  5 27 18 43 29.9990000  0  5G 2G18G16G11G19
  20665374.886    -5303595.515 8  -4077405.18123
  23692273.0194    8223376.75545   6356843.54961
  24131638.706     2065376.422 4   1460351.52521
  23653739.9954    2384863.61646   1865017.32461
  21452644.8394    1628444.88746   1267405.41362
 92  5 27 18 43 59.9990000  0  5G 2G18G16G11G19
  20658537.0584   -5339520.72948  -4105398.82763
  23709815.2694    8315581.08945   6428690.78461
  24139200.167     2105091.113 5   1491297.98021
  23663693.730     2437147.087 6   1905757.66521
  21458521.1754    1659316.06146   1291460.80662
 92  5 27 18 44 29.9990000  0  5G 2G18G16G11G19
  20651758.659    -5375146.327 8  -4133159.00523
  23727374.4334    8407851.07445   6500589.15761
  24146810.659     2145082.194 4   1522459.76021
  23673727.206     2489895.071 6   1946859.94721
  21464444.339     1690455.188 6   1315725.01422
 92  5 27 18 44 59.9990000  0  5G 2G18G16G11G19
  20645034.901    -5410481.222 8  -4160692.66423
  23744952.2374    8500207.78145   6572555.10061
  24154475.1364    2185354.93545   1553840.98161
  23683853.5114    2543108.80246   1988325.13061
  21470419.800     1721860.280 6   1340196.46822
 92  5 27 18 45 29.9990000  0  5G 2G18G16G11G19
  20638360.9644   -5445544.82448  -4188014.93363
  23762543.3394    8592662.44945   6644597.37761
  24162184.7844    2225876.01745   1585415.69761
  23694066.1834    2596776.57946   2030144.13161
  21476446.300     1753521.127 6   1364867.19722
 92  5 27 18 45 59.9990000  0  5G 2G18G16G11G19
  20631739.2064   -5480342.94748  -4215130.33463
  23780158.2844    8685229.35145   6716727.10461
  24169947.1364    2266640.13645   1617179.77261
  23704366.4874    2650899.26046   2072317.61261
  21482520.2064    1785437.43447   1389736.98262
 92  5 27 18 46 29.9990000  0  5G 2G18G16G11G19
  20625165.6444   -5514890.83148  -4242050.73863
  23797798.5654    8777920.29845   6788953.46461
  24177746.909     2307651.485 5   1649136.49121
  23714753.347     2705483.389 6   2114850.63921
  21488645.136     1817630.084 6   1414822.11822
 92  5 27 18 46 59.9990000  0  5G 2G18G16G11G19
  20618636.9954   -5549201.22548  -4268786.09463
  23815457.190     8870726.052 5   6861269.29121
  24185593.065     2348892.698 5   1681272.31021
  23725226.073     2760520.694 6   2157736.80921
  21494823.9724    1850104.67347   1440126.91762
 92  5 27 18 47 29.9990000  0  5G 2G18G16G11G19
  20612154.6124   -5583257.16148  -4295323.18463
  23833140.448     8963640.631 5   6933669.92621
  24193483.9014    2390357.72645   1713582.52861
  23735784.956     2816007.754 6   2200973.44221
  21501061.7224    1882874.14746   1465661.52762
 92  5 27 18 47 59.9990000  0  5G 2G18G16G11G19
  20605725.667    -5617045.865 8  -4321652.02223
  23850837.0264    9056649.89545   7006144.33361
  24201426.323     2432058.775 5   1746076.63721
  23746427.987     2871938.285 6   2244555.63221
  21507353.894     1915937.847 6   1491425.38822
 92  5 27 18 48 29.9990000  0  5G 2G18G16G11G19
  20599351.9174   -5650542.13648  -4347752.99363
  23868555.855     9149754.580 5   7078693.10021
  24209403.855     2473990.494 5   1778750.52521
  23757156.550     2928314.272 6   2288484.95321
  21513699.5974    1949298.84946   1517420.90562
 92  5 27 18 48 59.9990000  0  5G 2G18G16G11G19
  20593032.7764   -5683743.20648  -4373623.94863
  23886286.9254    9242933.33245   7151299.55861
  24217421.9874    2516135.92544   1811590.95261
  23767969.917     2985119.896 6   2332749.04821
  21520097.636     1982921.818 6   1543620.54822
 92  5 27 18 49 29.9990000  0  5G 2G18G16G11G19
  20586774.2614   -5716640.35748  -4399258.07663
  23904031.784     9336177.125 5   7223956.72021
  24225487.1834    2558511.24244   1844610.51061
  23778858.6124    3042356.09446   2377348.63361
  21526542.8314    2016794.94146   1570015.13562
 92  5 27 18 49 59.9990000  0  5G 2G18G16G11G19
  20580569.9094   -5749241.86248  -4424661.83263
  23921788.6054    9429474.17845   7296655.36761
  24233598.730     2601132.170 4   1877821.45721
  23789829.308     3100027.439 6   2422287.32021
  21533036.7844    2050914.60346   1596601.83462
 92  5 27 18 50 29.9990000  0  5G 2G18G16G11G19
  20574419.6364   -5781559.32648  -4449844.26563
  23939548.7614    9522812.36045   7369386.05061
  24241750.1594    2643992.34244   1911218.90261
  23800889.550     3158129.256 6   2467561.42621
  21539577.050     2085272.082 6   1623373.83222
 92  5 27 18 50 59.9990000  0  5G 2G18G16G11G19
  20568318.6754   -5813624.32648  -4474829.96063
  23957312.714     9616171.813 5   7442133.35521
  24249953.659     2687094.955 4   1944805.25921
  23812022.8084    3216649.11746   2513161.29861
  21546157.2224    2119859.04046   1650324.63262
 92  5 27 18 51 29.9990000  0  5G 2G18G16G11G19
  20562266.1444   -5845433.64648  -4499616.43063
  23975084.792     9709577.071 5   7514916.32221
  24258196.8084    2730441.92544   1978582.01961
  23823241.8314    3275592.83446   2559091.43061
  21552789.042     2154703.873 6   1677476.40022
 92  5 27 18 51 59.9990000  0  5G 2G18G16G11G19
  20556260.1984   -5876994.54648  -4524209.32163
  23992874.6364    9803043.94045   7587747.28161
  24266491.644     2774013.728 4   2012533.90821
  23834536.409     3334956.751 5   2605348.99021
  21559469.1834    2189820.82446   1704840.19562
 92  5 27 18 52 29.9990000  0  5G 2G18G16G11G19
  20550299.8234   -5908307.67448  -4548609.15363
  24010669.769     9896582.728 4   7660634.26921
  24274825.190     2817788.278 4   2046643.79521
  23845914.847     3394734.278 6   2651928.86621
  21566204.7454    2225213.08546   1732418.52062
 92  5 27 18 52 59.9990000  0  5G 2G18G16G11G19
  20544389.5034   -5939380.28148  -4572821.55463
  24028490.409     9990216.163 4   7733594.99521
  24283193.9334    2861747.52044   2080897.58661
  23857363.8234    3454923.32345   2698829.38761
  21572996.175     2260891.448 6   1760219.78622
 92  5 27 18 53 29.9990000  0  5G 2G18G16G11G19
  20538522.2694   -5970197.11948  -4596834.66063
  24046328.4954   10083939.85044   7806626.09661
  24291587.1594    2905875.85744   2115283.13561
  23868896.870     3515522.457 5   2746049.46021
  21579842.1364    2296864.21746   1788250.43762
 92  5 27 18 53 59.9990000  0  5G 2G18G16G11G19
  20532706.2304   -6000770.19848  -4620657.82663
  24064171.972    10177718.146 5   7879699.66821
  24300008.698     2950167.466 3   2149795.90221
  23880506.6124    3576522.29945   2793581.77661
  21586736.8084    2333115.35746   1816498.01762
 92  5 27 18 54 29.9990000  0  5G 2G18G16G11G19
  20526935.8474   -6031084.89748  -4644279.66063
  24082029.776    10271546.923 5   7952812.67721
  24308471.276     2994632.401 4   2184443.73321
  23892193.0344    3637930.73846   2841432.47661
  21593691.5264    2369649.16346   1844965.84562
 92  5 27 18 54 59.9990000  0  5G 2G18G16G11G19
  20521219.6754   -6061135.28748  -4667695.54263
  24099893.870    10365415.992 5   8025957.03621
  24316979.0034    3039293.58043   2219244.50761
  23903955.870     3699752.616 5   2889605.32621
  21600697.292     2406469.304 6   1873656.78422
 92  5 27 18 55 29.9990000  0  5G 2G18G16G11G19
  20515548.8004   -6090920.55148  -4690904.82263
  24117758.9254   10459282.86045   8099099.64761
  24325512.4484    3084141.02943   2254190.38061
  23915795.292     3761970.837 5   2938087.04421
  21607754.6054    2443555.79746   1902555.27562
 92  5 27 18 55 59.9990000  0  5G 2G18G16G11G19
  20509934.347    -6120435.444 8  -4713903.42123
  24135619.9254   10553167.97845   8172256.49561
  24334077.1984    3129177.56043   2289283.62361
  23927710.5584    3824590.65345   2986881.67361
  21614865.183     2480912.442 6   1931664.27422
 92  5 27 18 56 29.9990000  0  5G 2G18G16G11G19
  20504369.190    -6149678.642 8  -4736690.31523
  24153493.167    10647087.738 5   8245440.29621
  24342684.1674    3174396.03043   2324518.61961
  23939702.495     3887606.959 5   3035985.24621
  21622025.3474    2518544.09146   1960987.55962
 92  5 27 18 56 59.9990000  0  5G 2G18G16G11G19
  20498854.1594   -6178664.85348  -4759276.96263
  24171372.3704   10741032.97345   8318643.98461
  24351322.667     3219786.043 3   2359887.26221
  23951769.003     3951008.205 5   3085388.77121
  21629235.8784    2556438.25746   1990515.40562
 92  5 27 18 57 29.9990000  0  5G 2G18G16G11G19
  20493387.0194   -6207389.47348  -4781659.77563
  24189257.9804   10835018.37045   8391878.94161
  24359993.6984    3265334.27943   2395379.28261
  23963907.651     4014798.497 5   3135095.46021
  21636498.722     2594601.684 6   2020253.05822
 92  5 27 18 57 59.9990000  0  5G 2G18G16G11G19
  20487969.6594   -6235860.84748  -4803845.24963
  24207152.878    10929054.474 5   8465153.44521
  24368682.7144    3311055.57042   2431006.06161
  23976122.8234    4078979.60545   3185106.69361
  21643813.8154    2633035.95546   2050201.76462
 92  5 27 18 58 29.9990000  0  5G 2G18G16G11G19
  20482599.9254   -6264075.87648  -4825830.97763
  24225055.4174   11023143.52045   8538469.17161
  24377427.933     3356958.104 2   2466774.12921
  23988412.3004    4143557.29546   3235426.93161
  21651175.800     2671732.262 6   2080354.65422
 92  5 27 18 58 59.9990000  0  5G 2G18G16G11G19
  20477280.1594   -6292040.72648  -4847621.75763
  24242960.815    11117254.047 5   8611801.67321
  24386192.190     3403023.433 3   2502669.01921
  24000770.5894    4208514.52145   3286042.93561
  21658584.284     2710665.551 6   2110692.19622
 92  5 27 18 59 29.9990000  0  5G 2G18G16G11G19
  20472006.050    -6319744.269 8  -4869208.91023
  24260877.323    11211391.044 5   8685154.80321
  24394997.1204    3449264.00044   2538700.52061
  24013203.5734    4273852.69145   3336955.77461
  21666039.8704    2749845.64646   2141222.07562
 92  5 27 18 59 59.9990000  0  5G 2G18G16G11G19
  20466782.5654   -6347202.56548  -4890604.97463
  24278791.5504   11305529.12845   8758508.73061
  24403818.6204    3495663.07043   2574855.48761
  24025701.1204    4339540.59045   3388141.13561
  21673541.089     2789243.562 6   2171921.65922
 92  5 27 19  0 29.9990000  0  4G 2G18G11G19
  20461609.5114   -6374382.83448  -4911784.39263
  24296709.2534   11399693.08545   8831882.85761
  24038275.472     4405605.669 5   3439620.38521
  21681085.9954    2828902.12646   2202824.36262
 92  5 27 19  0 59.9990000  0  4G 2G18G11G19
  20456488.2454   -6401298.16048  -4932757.35463
  24314631.7844   11493853.97845   8905254.57061
  24050916.573     4472031.808 6   3491380.97721
  21688681.4724    2868830.47046   2233937.28862
 92  5 27 19  1 29.9990000  0  4G 2G18G11G19
  20451413.659    -6427962.244 8  -4953534.54323
  24332548.315    11588013.688 5   8978625.36221
  24063620.8624    4538813.34745   3543418.51061
  21696332.284     2909031.585 6   2265262.75322
 92  5 27 19  1 59.9990000  0  4G 2G18G11G19
  20446388.1594   -6454373.23348  -4974114.52863
  24350463.5584   11682174.08143   9051996.65661
  24076401.831     4605958.598 6   3595739.43821
  21704036.5814    2949515.05246   2296808.23061
 92  5 27 19  2 29.9990000  0  4G 2G18G11G19
  20441404.2374   -6480558.73748  -4994518.80963
  24368382.2304   11776322.51744   9125358.63961
  24089246.8944    4673460.50945   3648338.30661
  21711793.9484    2990278.97146   2328572.25461
 92  5 27 19  2 59.9990000  0  4G 2G18G11G19
  20436465.2374   -6506516.14248  -5014745.34863
  24386297.261    11870470.736 4   9198720.50121
  24102163.112     4741324.512 6   3701219.31521
  21719602.597     3031318.022 6   2360550.64021
 92  5 27 19  3 29.9980000  0  4G 2G18G11G19
  20431570.6624   -6532239.07948  -5034789.18463
  24404213.670    11964628.614 4   9272089.87221
  24115144.959     4809549.557 5   3754381.66021
  21727465.2094    3072631.15746   2392742.62362
 92  5 27 19  3 59.9980000  0  4G 2G18G11G19
  20426719.4124   -6557734.37548  -5054655.64563
  24422134.4984   12058789.53943   9345461.58461
  24128195.006     4878129.481 5   3807820.53921
  21735378.3574    3114215.97746   2425146.29261
 92  5 27 19  4 29.9980000  0  4G 2G18G11G19
  20421913.7564   -6582985.58348  -5074331.89963
  24440055.7484   12152954.23944   9418836.29761
  24141310.0924    4947061.50645   3861533.74361
  21743345.0844    3156069.17546   2457759.09661
 92  5 27 19  4 59.9980000  0  4G 2G18G11G19
  20417159.4904   -6607972.51448  -5093802.22663
  24457975.2324   12247116.01344
  24154497.506     5016344.012 5   3915520.06921
  21751358.709     3198191.120 6   2490581.30321
 92  5 27 19  5 29.9980000  0  4G 2G18G11G19
  20412452.2874   -6632705.36548  -5113074.57463
  24475893.162    12341260.354 4
  24167742.561     5085956.632 5   3969763.63821
  21759425.834     3240575.725 6   2523608.17621
 92  5 27 19  5 59.9980000  0  4G 2G18G11G19
  20407792.2174   -6657192.50848  -5132155.45463
  24493802.490    12435390.232 4        -0.40131
  24181050.397     5155901.789 5   4024266.34621
  21767540.498     3283225.409 6   2556841.60421
 92  5 27 19  6 29.9980000  0  4G 2G18G11G19
  20403180.7724   -6681433.19648  -5151044.29863
  24511710.5534   12529508.05144     73337.79861
  24194430.803     5226184.168 5   4079031.79821
  21775708.0614    3326144.14246   2590284.68961
 92  5 27 19  6 59.9980000  0  4G 2G18G11G19
  20398609.1394   -6705454.96148  -5169762.55163
  24529617.186    12623605.120 3    146659.75421
  24207861.5374    5296794.77045   4134053.01261
  21783925.654     3369332.282 6   2623937.69821
 92  5 27 19  7 29.9980000  0  3G 2G11G19
  20394077.8264   -6729267.49848  -5188317.76363
  24221359.8734    5367731.54345   4189328.40861
  21792193.662     3412785.221 6   2657797.02921
 92  5 27 19  7 59.9980000  0  3G 2G11G19
  20389587.3734   -6752866.63848  -5206706.68663
  24234924.2484    5438993.52645   4244857.25861
  21800510.1074    3456482.59446   2691846.84761
 92  5 27 19  8 29.9980000  0  4G 2G11G19G15
  20385137.3424   -6776245.50248  -5224923.97163
  24248539.154     5510566.209 5   4300628.22221
  21808870.115     3500407.332 6   2726073.81421
  24063891.2324         -0.72652
 92  5 27 19  8 59.9980000  0  4G 2G11G19G15
  20380730.4754   -6799410.14448  -5242974.33163
  24262223.990     5582437.709 5   4356631.94921
  21817271.1314    3544554.67946   2760474.22361
  24051010.1704     -67699.35143
 92  5 27 19  9 29.9980000  0  4G 2G11G19G15
  20376370.9364   -6822316.99548  -5260823.81163
  24275958.2954    5654630.37445   4412885.97961
  21825716.8974    3588947.95646   2795066.29861
  24038188.0374    -135062.85342
 92  5 27 19  9 59.9980000  0  4G 2G11G19G15
  20372061.0374   -6844966.65548  -5278472.88363
  24289757.006     5727134.888 5   4469382.99821
  21834214.217     3633592.160 6   2829853.90021
  24025433.5224    -202110.11943
 92  5 27 19 10 29.9980000  0  4G 2G11G19G15
  20367794.1074   -6867380.82748  -5295938.46363
  24303608.951     5799943.066 5   4526116.63621
  21842763.139     3678513.710 6   2864857.60421
  24012734.475     -268848.155 2
 92  5 27 19 10 59.9980000  0  4G 2G11G19G15
  20363572.6074   -6889571.50348  -5313229.89163
  24317523.154     5873050.796 5   4583083.72521
  21851366.068     3723727.087 6   2900088.69521
  24000091.7874    -335276.75243
 92  5 27 19 11 29.9980000  0  4G 2G11G19G15
  20359394.7014   -6911532.32148  -5330342.20963
  24331493.014     5946465.056 5   4640289.70121
  21860025.014     3769235.128 6   2935549.40421
  23987515.068     -401365.978 3        -0.43031
 92  5 27 19 11 59.9980000  0  4G 2G11G19G15
  20355255.8574   -6933276.65748  -5347285.83963
  24345521.8504    6020178.37946   4697728.62761
  21868741.568     3815038.596 6   2971240.30721
  23975005.045     -467094.023 3    -51216.98621
 92  5 27 19 12 29.9980000  0  4G 2G11G19G15
  20351159.3114   -6954808.26448  -5364063.70663
  24359600.2724    6094182.35345   4755394.06561
  21877514.818     3861128.473 6   3007154.41021
  23962568.9514    -532458.12744
 92  5 27 19 12 59.9980000  0  4G 2G11G19G15
  20347104.8574   -6976105.57048  -5380659.00363
  24373739.7564    6168481.70545   4813289.66761
  21886333.7874    3907478.95446   3043271.54261
  23950201.311     -597443.216 4
 92  5 27 19 13 29.9980000  0  4G 2G11G19G15
  20343096.8344   -6997170.43548  -5397073.17663
  24387928.9984    6243060.87845   4871403.32161
  21895200.475     3954069.786 6   3079575.97921
  23937906.9204    -662060.83545        -0.37271
 92  5 27 19 13 59.9980000  0  4G 2G11G19G15
  20339136.7794   -7017975.50248  -5413284.91463
  24402178.4364    6317938.19245   4929749.29561
  21904116.467     4000928.528 6   3116089.18521
  23925680.4044    -726306.68245    -50062.00261
 92  5 27 19 14 29.9980000  0  4G 2G11G19G15
  20335222.7014   -7038553.98748  -5429320.09263
  24416482.506     6393088.282 5   4988307.80521
  21913077.264     4048021.208 6   3152784.65921
  23913517.756     -790220.440 5    -99864.81521
 92  5 27 19 14 59.9980000  0  4G 2G11G19G15
  20331347.1624   -7058916.99348  -5445187.36663
  24430834.186     6468508.605 5   5047076.92421
  21922084.100     4095352.541 6   3189666.11421
  23901417.865     -853805.268 5   -149411.32021
 92  5 27 19 15 29.9980000  0  4G 2G11G19G15
  20327513.4984   -7079059.52748  -5460882.84463
  24445237.490     6544205.020 4   5106061.12221
  21931143.373     4142953.709 6   3226757.81521
  23889378.982     -917060.123 5   -198700.72221
 92  5 27 19 15 59.9980000  0  4G 2G11G19G15
  20323721.0454   -7098992.61648  -5476415.11663
  24459695.5684    6620178.97644   5165261.62061
  21940251.9204    4190821.36346   3264057.18061
  23877406.264     -979974.082 5   -247724.46221
 92  5 27 19 16 29.9980000  0  4G 2G11G19G15
  20319966.2404   -7118720.67148  -5491787.62063
  24474205.9754    6696421.65145   5224671.46761
  21949409.4364    4238942.00946   3301553.66461
  23865501.506    -1042534.494 5   -296472.71421
 92  5 27 19 16 59.9980000  0  3G 2G19G15
  20316256.1004   -7138224.65648  -5506985.51963
  21958617.600     4287319.562 6   3339250.36421
  23853669.576    -1104724.661 5   -344932.44921
 92  5 27 19 17 29.9980000  0  4G 2G13G19G15
  20312586.8504   -7157505.51748  -5522009.56163
  24035708.1624    -139726.76543
  21967867.334     4335935.397 6   3377132.73221
  23841906.9204   -1166536.21645   -393097.16861
 92  5 27 19 17 59.9980000  0  4G 2G13G19G15
  20308960.3114   -7176560.06148  -5536857.24263
  24009128.7324    -279419.84443
  21977161.6544    4384783.87046   3415196.36161
  23830220.045    -1227950.249 5   -440952.12921
 92  5 27 19 18 29.9980000  0  4G 2G13G19G15
  20305377.5684   -7195392.43348  -5551531.80163
  23982547.9044    -419093.74343
  21986498.5844    4433849.66946   3453429.32761
  23818605.0294   -1288975.41845   -488504.02961
 92  5 27 19 18 59.9980000  0  4G 2G13G19G15
  20301833.6004   -7214018.86948  -5566045.89663
  23955972.639     -558748.532 3
  21995874.576     4483122.114 6   3491823.33021
  23807066.8734   -1349615.52945   -535755.89161
 92  5 27 19 19 29.9980000  0  4G 2G13G19G15
  20298327.3894   -7232437.28748  -5580397.89263
  23929404.2724    -698366.38543        -0.42371
  22005292.7954    4532614.38246   3530388.61861
  23795605.584    -1409854.285 5   -582695.07121
 92  5 27 19 19 59.9980000  0  4G 2G13G19G15
  20294860.8504   -7250647.76548  -5594587.86263
  23902842.1004    -837950.73043   -108767.01061
  22014752.037     4582327.797 6   3569126.23921
  23784215.4824   -1469700.83045   -629328.58461
 92  5 27 19 20 29.9980000  0  4G 2G13G19G15
  20291433.4904   -7268662.43348  -5608625.25863
  23876284.389     -977505.249 3   -217510.38521
  22024255.990     4632263.934 6   3608037.38921
  23772902.037    -1529157.755 5   -675658.48721
 92  5 27 19 20 59.9980000  0  4G 2G13G19G15
  20288041.9754   -7286485.01648  -5622512.96463
  23849733.732    -1117020.141 3   -326222.88921
  22033806.1314    4682438.77546   3647134.53861
  23761659.381    -1588227.173 5   -721686.43821
 92  5 27 19 21 29.9980000  0  4G 2G13G19G15
  20284689.170    -7304113.291 8  -5636249.26123
  23823186.740    -1256500.237 3   -434908.23021
  22043403.4674    4732870.23546   3686431.67361
  23750491.756    -1646920.968 5   -767421.69721
 92  5 27 19 21 59.9980000  0  4G 2G13G19G15
  20281371.8184   -7321535.82248  -5649825.24063
  23796659.6544   -1395931.45944
  22053052.904     4783586.494 6   3725950.73021
  23739396.389    -1705225.378 5   -812853.52421
 92  5 27 19 22 29.9980000  0  4G 2G13G19G15
  20278093.076    -7338773.792 8  -5663257.40323
  23770134.068    -1535314.488 4
  22062756.1624    4834588.99146   3765692.80961
  23728374.2644   -1763145.42945   -857985.83561
 92  5 27 19 22 59.9980000  0  4G 2G13G19G15
  20274849.0684   -7355824.80248  -5676543.89563
  23743623.357    -1674650.136 4
  22072519.436     4885867.887 6   3805650.27521
  23717425.842    -1820691.247 5   -902826.60421
 92  5 27 19 23 29.9980000  0  4G 2G13G19G15
  20271638.6314   -7372690.88948  -5689686.27963
  23717113.475    -1813943.187 4
  22082322.5454    4937405.35046   3845809.22961
  23706543.998    -1877857.559 5   -947371.61721
 92  5 27 19 23 59.9980000  0  4G 2G13G19G15
  20268468.1004   -7389350.29748  -5702667.61963
  23690619.076    -1953175.856 4
  22092178.1544    4989190.90846   3886161.48061
  23695742.7794   -1934620.27245   -991602.08961
 92  5 27 19 24 29.9980000  0  4G 2G13G19G15
  20265339.8344   -7405789.16748  -5715477.11063
  23664133.553    -2092352.422 4        -0.05631
  22102073.334     5041196.174 6   3926684.96221
  23685017.2484   -1990979.22945  -1035517.98361
 92  5 27 19 24 59.9980000  0  4G 2G13G19G15
  20262257.7644   -7421981.33948  -5728094.37363
  23637659.2404   -2231464.97645   -108399.00361
  22112015.1004    5093423.06746   3967381.13161
  23674372.803    -2046920.544 5  -1079108.45721
 92  5 27 19 25 29.9980000  0  4G 2G13G19G15
  20259221.381    -7437943.820 8  -5740532.65423
  23611201.4824   -2370522.42045   -216755.11461
  22121996.311     5145868.031 6   4008247.23621
  23663808.2564   -2102454.00845  -1122381.07661
 92  5 27 19 25 59.9980000  0  4G 2G13G19G15
  20256226.1314   -7453677.02248  -5752792.27863
  23584751.5764   -2509514.75144   -325060.41561
  22132020.264     5198555.644 6   4049302.39321
  23653314.662    -2157578.370 5  -1165334.97221
 92  5 27 19 26 29.9980000  0  4G 2G13G19G15
  20253271.4824   -7469208.77048  -5764894.93163
  23558312.8264   -2648447.13745   -433319.04961
  22142091.318     5251488.872 6   4090548.96921
  23642899.8504   -2212302.08645  -1207976.68361
 92  5 27 19 26 59.9980000  0  4G 2G13G19G15
  20250349.3814   -7484558.12548  -5776855.45463
  23531885.9044   -2787315.49044   -541527.81961
  22152212.623     5304675.387 6   4131992.90221
  23632564.600    -2266622.401 5  -1250304.01521
 92  5 27 19 27 29.9980000  0  4G 2G13G19G15
  20247463.6234   -7499728.90148  -5788676.82563
  23505472.9284   -2926105.40144   -649675.44461
  22162382.2644    5358115.23846   4173634.21661
  23622306.4204   -2320533.81045  -1292312.73961
 92  5 27 19 27 59.9980000  0  4G 2G13G19G15
  20244613.9824   -7514712.62148  -5800352.44563
  23479078.4984   -3064808.25744   -757755.24461
  22172598.3654    5411796.62546   4215463.76461
  23612127.256    -2374020.515 5  -1333990.52821
 92  5 27 19 28 29.9980000  0  4G 2G13G19G15
  20241794.1474   -7529527.78148  -5811896.72063
  23452696.170    -3203434.578 3   -865775.43021
  22182854.7644    5465685.44446   4257454.94761
  23602025.732    -2427094.514 5  -1375346.77721
 92  5 27 19 28 59.9980000  0  4G 2G13G19G15
  20239006.4204   -7544170.08448  -5823306.29563
  23426336.022    -3341977.889 4   -973730.94121
  22193149.9824    5519781.82946   4299607.87161
  23592007.3894   -2479752.83645  -1416379.09361
 92  5 27 19 29 29.9980000  0  4G 2G13G19G15
  20236251.2174   -7558651.03848  -5834590.14163
  23399984.076    -3480443.116 4  -1081625.60521
  22203480.709     5574088.501 6   4341924.64321
  23582061.029    -2532019.071 5  -1457105.89121
 92  5 27 19 29 59.9980000  0  4G 2G13G19G15
  20233529.0454   -7572961.27448  -5845740.96963
  23373649.5684   -3618818.96044  -1189450.67261
  22213860.115     5628628.737 6   4384423.40521
  23572192.2954   -2583877.79645  -1497515.13961
 92  5 27 19 30 29.9980000  0  4G 2G13G19G15
  20230837.6234   -7587100.31348  -5856758.38963
  23347338.326    -3757106.851 5  -1297207.17021
  22224285.654     5683407.683 6   4427108.17921
  23562400.9984   -2635333.52245  -1537610.36461
 92  5 27 19 30 59.9980000  0  4G 2G13G19G15
  20228181.2644   -7601056.79248  -5867633.55963
  23321039.1544   -3895304.66145  -1404893.48261
  22234754.561     5738425.049 6   4469978.75321
  23552685.7174   -2686380.00246  -1577386.72061
 92  5 27 19 31 29.9980000  0  4G 2G13G19G15
  20225561.6004   -7614826.01348  -5878362.81063
  23294758.2874   -4033411.37845  -1512508.78761
  22245269.037     5793676.037 6   4513031.36021
  23543050.3344   -2737020.11146  -1616846.42861
 92  5 27 19 31 59.9980000  0  4G 2G13G19G15
  20222981.0374   -7628388.21448  -5888930.74563
  23268496.9904   -4171416.24145  -1620044.71561
  22255825.4594    5849149.69946   4556257.46061
  23533498.178    -2787219.717 6  -1655962.88721
 92  5 27 19 32 29.9980000  0  4G 2G13G19G15
  20220438.4824   -7641749.68848  -5899342.27063
  23242256.7564   -4309323.68845  -1727504.78861
  22266420.147     5904832.781 6   4599646.76821
  23524029.647    -2836973.429 5  -1694731.88121
 92  5 27 19 32 59.9980000  0  4G 2G13G19G15
  20217935.1784   -7654902.88748  -5909591.50463
  23216033.154    -4447120.521 5  -1834878.59521
  22277056.6544    5960734.33646   4643206.32461
  23514648.772    -2886277.936 6  -1733150.83021
 92  5 27 19 33 29.9980000  0  4G 2G13G19G15
  20215469.8654   -7667862.97348  -5919690.26063
  23189831.725    -4584814.672 5  -1942172.39321
  22287738.7564    6016855.61546   4686937.07861
  23505349.4124   -2935143.20846  -1771227.52561
 92  5 27 19 33 59.9980000  0  4G 2G13G19G15
  20213041.8264   -7680616.30848  -5929627.91163
  23163650.0844   -4722395.67945  -2049378.03761
  22298462.318     6073203.605 6   4730844.48921
  23496137.936    -2983558.034 6  -1808953.25121
 92  5 27 19 34 29.9980000  0  4G 2G13G19G15
  20210646.6394   -7693197.11448  -5939431.12963
  23137485.3184   -4859883.16045  -2156510.76561
  22309223.928     6129760.970 6   4774915.05321
  23487000.7644   -3031555.91145  -1846354.05061
 92  5 27 19 34 59.9980000  0  4G 2G13G19G15
  20208287.4204   -7705602.94948  -5949098.00264
  23111342.256    -4997270.594 5  -2263565.53521
  22320024.232     6186523.826 6   4819145.73421
  23477942.279    -3079150.009 6  -1883440.24121
 92  5 27 19 35 29.9980000  0  4G 2G13G19G15
  20205959.8184   -7717830.74948  -5958626.14263
  23085219.5684   -5134544.66845  -2370532.01161
  22330870.7094    6243508.78746   4863549.50461
  23468966.936    -3126325.397 6  -1920200.15221
 92  5 27 19 35 59.9980000  0  4G 2G13G19G15
  20203667.2014   -7729883.22748  -5968017.66963
  23059119.436    -5271696.687 5  -2477403.33021
  22341755.811     6300714.530 6   4908125.28721
  23460072.764    -3173069.098 6  -1956623.69921
 92  5 27 19 36 29.9980000  0  4G 2G13G19G15
  20201406.1784   -7741760.78948  -5977272.90063
  23033048.8034   -5408712.25745  -2584168.37961
  22352687.092     6358156.547 6   4952885.20521
  23451262.889    -3219364.221 5  -1992697.67921
 92  5 27 19 36 59.9980000  0  4G 2G13G19G15
  20199179.3894   -7753465.41948  -5986393.38063
  23006996.428    -5545595.433 5  -2690830.18721
  22363663.6624    6415838.53346   4997832.07061
  23442535.5614   -3265220.31046  -2028429.57261
 92  5 27 19 37 29.9980000  0  4G 2G13G19G15
  20196984.1864   -7765000.46648  -5995381.72163
  22980973.3814   -5682349.17245  -2797391.18961
  22374686.6864    6473751.07446   5042958.61861
  23433895.482    -3310633.417 6  -2063816.31021
 92  5 27 19 37 59.9980000  0  4G 2G13G19G15
  20194827.3034   -7776332.80948  -6004212.11163
  22954976.873    -5818947.882 5  -2903831.37021
  22385751.107     6531902.839 6   5088271.56121
  23425345.1934   -3355564.46946  -2098827.38761
 92  5 27 19 38 29.9980000  0  4G 2G13G19G15
  20192712.2644   -7787448.95748  -6012874.03463
  22929017.7014   -5955388.19845  -3010148.18361
  22396858.5534    6590292.66446   5133769.98761
  23416884.3264   -3400026.48846  -2133472.98361
 92  5 27 19 38 59.9980000  0  4G 2G13G19G15
  20190637.2014   -7798357.08848  -6021373.87364
  22903082.8814   -6091676.47445  -3116346.49961
  22408012.6234    6648904.70546   5179441.58561
  23408510.107    -3444032.478 6  -2167763.24421
 92  5 27 19 39 29.9980000  0  4G 2G13G19G15
  20188597.9044   -7809066.25748  -6029718.67364
  22877177.0684   -6227814.67245  -3222427.89161
  22419206.5064    6707729.32246   5225278.82561
  23400224.8424   -3487565.14446  -2201684.70261
 92  5 27 19 39 59.9980000  0  4G 2G13G19G15
  20186596.0924   -7819592.02548  -6037920.56164
  22851298.5764   -6363800.80845  -3328390.79061
  22430442.904     6766785.162 6   5271296.22421
  23392029.467    -3530624.933 6  -2235237.67621
 92  5 27 19 40 29.9980000  0  4G 2G13G19G15
  20184623.8734   -7829953.33448  -6045994.30464
  22825450.1074   -6499629.08145  -3434230.71761
  22441730.6784    6826085.83746   5317504.39561
  23383923.4204   -3573228.92846  -2268435.49361
 92  5 27 19 40 59.9980000  0  4G 2G13G19G15
  20182679.9124   -7840173.44148  -6053958.02164
  22799629.3344   -6635306.45945  -3539953.01361
  22453063.717     6885626.246 6   5363899.35921
  23375904.8974   -3615362.90246  -2301267.01461
 92  5 27 19 41 29.9980000  0  4G 2G13G19G15
  20180764.3574   -7850237.09148  -6061799.82264
  22773840.4044   -6770825.77045  -3645552.16961
  22464439.0924    6945419.90746   5410491.69261
  23367978.6864   -3657024.53746  -2333730.51561
 92  5 27 19 41 59.9980000  0  4G 2G13G19G15
  20178876.8344   -7860153.06548  -6069526.55164
  22748075.920    -6906207.399 5  -3751044.00521
  22475860.857     7005431.127 6   5457253.51121
  23360131.7954   -3698250.83045  -2365854.75061
 92  5 27 19 42 29.9980000  0  4G 2G13G19G15
  20177023.0684   -7869894.50048  -6077117.27163
  22722347.0924   -7041433.81745  -3856414.90961
  22487317.865     7065649.441 6   5504176.71421
  23352371.0294   -3739024.76945  -2397626.55461
 92  5 27 19 42 59.9980000  0  4G 2G13G19G15
  20175209.1864   -7879431.49848  -6084548.69064
  22696648.0614   -7176493.96845  -3961656.25561
  22498816.389     7126074.858 6   5551261.31321
  23344703.9824   -3779326.55646  -2429030.37661
 92  5 27 19 43 29.9980000  0  4G 2G13G19G15
  20173432.3504   -7888765.32748  -6091821.79964
  22670975.6314   -7311386.09045  -4066766.66261
  22510352.920     7186695.195 6   5598497.78521
  23337123.693    -3819164.299 6  -2460072.67521
 92  5 27 19 43 59.9980000  0  4G 2G13G19G15
  20171693.1704   -7897911.07348  -6098948.35663
  22645341.0684   -7446100.90245  -4171738.93061
  22521926.615     7247506.925 6   5645883.39021
  23329637.443    -3858515.228 6  -2490735.60221
 92  5 27 19 44 29.9980000  0  4G 2G13G19G15
  20169986.3654   -7906879.36948  -6105936.63063
  22619737.6314   -7580630.64245  -4276566.96961
  22533538.850     7308536.844 5   5693439.00521
  23322242.725    -3897366.856 6  -2521009.47021
 92  5 27 19 44 59.9980000  0  4G 2G13G19G15
  20168311.5224   -7915682.30448  -6112796.05264
  22594174.8654   -7714981.03145  -4381255.26661
  22545196.029     7369793.045 5   5741170.95321
  23314938.3344   -3935726.73845  -2550900.16261
 92  5 27 19 45 29.9970000  0  4G 2G13G19G15
  20166667.9784   -7924313.99248  -6119522.03864
  22568646.493    -7849129.404 5  -4485786.17521
  22556896.1264    7431282.83146   5789084.92161
  23307735.9934   -3973580.72845  -2580396.69261
 92  5 27 19 45 59.9970000  0  4G 2G13G19G15
  20165054.4394   -7932794.67248  -6126130.35163
  22543151.3604   -7983108.28245  -4590184.98361
  22568639.446     7492984.965 6   5837164.34921
  23300625.423    -4010967.525 6  -2609529.10921
 92  5 27 19 46 29.9970000  0  4G 2G13G19G15
  20163468.2594   -7941126.09448  -6132622.36463
  22517687.4234   -8116916.09745  -4694450.49461
  22580420.868     7554887.802 5   5885400.18321
  23293595.8294   -4047905.32746  -2638311.68961
 92  5 27 19 46 59.9970000  0  4G 2G13G19G15
  20161912.1424   -7949301.71648  -6138992.97664
  22492257.821    -8250548.061 5  -4798579.01621
  22592233.056     7616970.011 5   5933775.78421
  23286650.056    -4084402.655 6  -2666751.07821
 92  5 27 19 47 29.9970000  0  4G 2G13G19G15
  20160387.6894   -7957315.76848  -6145237.68763
  22466865.024    -8383992.504 5  -4902561.38721
  22604080.2984    7679236.32345   5982294.80261
  23279790.6574   -4120447.95946  -2694838.20961
 92  5 27 19 47 59.9970000  0  4G 2G13G19G15
  20158892.7824   -7965177.24648  -6151363.50264
  22441507.368    -8517245.073 5  -5006394.30521
  22615968.2354    7741696.59945   6030964.99561
  23273016.212    -4156038.034 5  -2722570.66821
 92  5 27 19 48 29.9970000  0  4G 2G13G19G15
  20157426.8214   -7972878.40348  -6157364.40564
  22416185.571    -8650298.810 5  -5110072.22321
  22627892.610     7804361.618 6   6079794.74221
  23266334.829    -4191154.705 6  -2749934.19321
 92  5 27 19 48 59.9970000  0  4G 2G13G19G15
  20155994.9234   -7980395.18248  -6163221.62464
  22390908.314    -8783139.637 5  -5213584.28221
  22639860.3144    7867248.89945   6128797.67361
  23259748.2824   -4225766.04046  -2776903.99061
 92  5 27 19 49 29.9970000  0  4G 2G13G19G15
  20154599.3144   -7987731.40248  -6168938.15664
  22365670.8374   -8915765.82045  -5316929.06861
  22651868.634     7930360.258 5   6177975.18721
  23253260.4314   -4259853.16745  -2803465.30861
 92  5 27 19 49 59.9970000  0  4G 2G13G19G15
  20153238.2204   -7994889.38248  -6174515.79663
  22340473.9074   -9048179.68045  -5420108.43161
  22663921.0954    7993680.28845   6227315.30761
  23246869.8144   -4293426.24145  -2829626.04361
 92  5 27 19 50 29.9970000  0  4G 2G13G19G15
  20151915.1654   -8001839.95948  -6179931.82663
  22315319.2904   -9180362.31145  -5523107.61561
  22676011.337     8057211.324 5   6276819.84121
  23240584.2744   -4326467.75746  -2855372.62761
 92  5 27 19 50 59.9970000  0  4G 2G13G19G15
  20150623.2594   -8008622.96448  -6185217.28163
  22290207.0714   -9312336.75046  -5625944.56161
  22688131.3844    8120923.07245   6326465.18661
  23234393.4314   -4359013.21646  -2880732.67861
 92  5 27 19 51 29.9970000  0  4G 2G13G19G15
  20149368.7434   -8015223.03748  -6190360.19663
  22265136.642    -9444074.150 6  -5728596.81721
  22700297.0174    8184839.78345   6376270.24161
  23228294.5484   -4391062.02645  -2905705.68961
 92  5 27 19 51 59.9970000  0  4G 2G13G19G15
  20148148.0094   -8021641.90548  -6195361.91163
  22240111.360    -9575581.280 6  -5831069.61421
  22712497.923     8248966.669 5   6426239.06421
  23222287.204    -4422627.222 5  -2930301.83721
 92  5 27 19 52 29.9970000  0  4G 2G13G19G15
  20146958.8604   -8027889.57648  -6200230.22263
  22215128.399    -9706870.336 6  -5933372.51021
  22724741.0954    8313302.46145   6476370.68361
  23216373.9154   -4453698.83845  -2954513.42261
 92  5 27 19 52 59.9970000  0  4G 2G13G19G15
  20145802.6034   -8033960.66648  -6204960.94063
  22190188.4394   -9837928.60146  -6035495.56361
  22737026.4074    8377866.74045   6526680.31861
  23210555.5014   -4484273.21545  -2978337.51461
 92  5 27 19 53 29.9970000  0  4G 2G13G19G15
  20144685.1184   -8039830.93548  -6209535.17163
  22165296.220    -9968732.761 6  -6137420.61321
  22749361.501     8442679.983 5   6577183.97921
  23204837.407    -4514318.873 5  -3001749.62721
 92  5 27 19 53 59.9970000  0  4G 2G13G19G15
  20143602.0564   -8045532.83548  -6213978.20763
  22140449.7044  -10099311.26946  -6239169.85761
  22761738.431     8507710.176 5   6627856.64421
  23199219.6264   -4543849.16246  -3024760.15561
 92  5 27 19 54 29.9970000  0  4G 2G13G19G15
  20142545.3994   -8051078.46848  -6218299.48063
  22115642.3374  -10229661.63246  -6340741.31261
  22774149.423     8572940.207 5   6678685.02621
  23193695.837    -4572876.159 6  -3047378.49321
 92  5 27 19 54 59.9970000  0  4G 2G13G19G15
  20141517.2124   -8056484.01448  -6222511.60063
  22090879.610   -10359782.624 6  -6442134.03621
  22786598.048     8638358.548 5   6729660.16321
  23188260.3604   -4601434.22046  -3069631.43661
 92  5 27 19 55 29.9970000  0  4G 2G13G19G15
  20140515.8764   -8061740.62048  -6226607.65563
  22066166.524   -10489664.340 6  -6543340.31121
  22799081.587     8703971.238 5   6780786.70021
  23182918.290    -4629504.194 6  -3091504.02521
 92  5 27 19 55 59.9970000  0  4G 2G13G19G15
  20139544.7904   -8066845.22848  -6230585.26963
  22041498.204   -10619300.425 6  -6644355.23521
  22811603.806     8769775.088 5   6832062.24321
  23177672.6344   -4657086.34746  -3112996.53261
 92  5 27 19 56 29.9970000  0  4G 2G13G19G15
  20138602.4704   -8071797.30448  -6234444.02863
  22016873.071   -10748692.784 6  -6745180.21121
  22824163.6734    8835759.21345   6883478.24661
  23172509.4314   -4684192.82446  -3134118.32661
 92  5 27 19 56 59.9970000  0  4G 2G13G19G15
  20137692.2354   -8076592.04048  -6238180.18763
  21992297.212   -10877841.829 6  -6845815.59621
  22836754.556     8901926.171 5   6935036.68721
  23167446.4394   -4710808.28646  -3154857.57661
 92  5 27 19 57 29.9970000  0  4G 2G13G19G15
  20136810.2744   -8081217.11848  -6241784.14663
  21967769.6184  -11006742.79546  -6946257.67161
  22849382.4234    8968273.15945   6986735.44461
  23162482.071    -4736899.744 6  -3175188.48121
 92  5 27 19 57 59.9970000  0  4G 2G13G19G15
  20135960.0954   -8085684.06448  -6245264.88363
  21943287.3294  -11135395.60546  -7046506.40561
  22862039.321     9034789.352 5   7038566.01921
  23157614.704    -4762473.160 5  -3195115.75821
 92  5 27 19 58 29.9970000  0  4G 2G13G19G15
  20135140.9314   -8089988.38048  -6248618.89763
  21918850.228   -11263800.443 6  -7146561.90321
  22874728.017     9101469.870 5   7090524.63821
  23152846.4074   -4787527.69946  -3214638.67761
 92  5 27 19 58 59.9970000  0  4G 2G13G19G15
  20134355.3294   -8094114.58448  -6251834.12663
  21894466.6494  -11391932.67846  -7246404.98461
  22887453.782     9168342.596 5   7142633.03321
  23148185.368    -4812043.422 6  -3233741.75721
 92  5 27 19 59 29.9970000  0  4G 2G13G19G15
  20133600.8454   -8098085.76348  -6254928.55263
  21870136.4394  -11519799.55546  -7346041.32461
  22900213.196     9235403.678 5   7194888.20021
  23143611.7204   -4836054.21146  -3252451.34061
 92  5 27 19 59 59.9970000  0  4G 2G13G19G15
  20132873.8684   -8101901.67148  -6257901.99363
  21845855.196   -11647401.890 6  -7445471.52321
  22913012.6184    9302662.94145   7247297.80361
  23139138.6424   -4859580.04646  -3270783.09861
 92  5 27 20  0 29.9970000  0  4G 2G13G19G15
  20132180.5644   -8105549.21148  -6260744.23563
  21821625.4464  -11774721.05446  -7544681.07261
  22925855.9074    9370145.69745   7299881.55561
  23134754.095    -4882599.011 6  -3288719.91421
 92  5 27 20  0 59.9970000  0  4G 2G13G19G15
  20131518.4704   -8109030.77548  -6263457.15163
  21797455.212   -11901740.044 6  -7643656.71421
  22938743.189     9437868.704 5   7352652.49021
  23130474.603    -4905097.712 6  -3306251.29121
 92  5 27 20  1 29.9970000  0  4G 2G13G19G15
  20130884.2904   -8112354.22248  -6266046.84963
  21773338.228   -12028471.793 6  -7742408.54021
  22951672.657     9505808.407 5   7405592.32221
  23126293.868    -4927071.706 6  -3323373.83321
 92  5 27 20  1 59.9970000  0  4G 2G13G19G15
  20130285.7904   -8115505.40748  -6268502.31963
  21749277.876   -12154906.682 6  -7840929.04521
  22964638.3294    9573957.70645   7458695.43061
  23122216.649    -4948488.013 5  -3340061.75221
 92  5 27 20  2 29.9970000  0  4G 2G13G19G15
  20129714.9394   -8118504.18648  -6270839.03663
  21725272.5174  -12281052.92646  -7939224.64461
  22977644.181     9642284.897 5   7511937.18221
  23118245.235    -4969358.461 5  -3356324.37421
 92  5 27 20  2 59.9970000  0  4G 2G13G19G15
  20129174.0094   -8121347.11348  -6273054.30563
  21701320.634   -12406920.150 6  -8037302.79721
  22990677.868     9710769.834 5   7565301.87021
  23114372.939    -4989705.982 6  -3372179.54321
 92  5 27 20  3 29.9970000  0  4G 2G13G19G15
  20128668.4464   -8123998.63348  -6275120.42063
  21677423.6184  -12532487.41746  -8135147.23561
  23003739.4154    9779429.28145   7618802.51161
  23110603.2744   -5009516.88346  -3387616.53061
 92  5 27 20  3 59.9970000  0  4G 2G13G19G15
  20128200.7514   -8126463.18548  -6277040.85263
  21653588.2514  -12657752.59146  -8232756.26461
  23016839.501     9848263.981 5   7672439.71721
  23106932.4544   -5028821.79346  -3402659.26661
 92  5 27 20  4 29.9970000  0  4G 2G13G19G15
  20127766.7044   -8128747.18548  -6278820.59563
  21629807.931   -12782718.735 6  -8330132.27621
  23029972.0564    9917273.43445   7726213.09961
  23103345.993    -5047639.921 5  -3417322.66621
 92  5 27 20  4 59.9970000  0  4G 2G13G19G15
  20127368.9314   -8130833.20648  -6280446.07563
  21606088.2284  -12907373.84946  -8427265.94861
  23043139.2904    9986480.94245   7780140.82461
  23099865.782    -5065958.446 6  -3431596.78821
 92  5 27 20  5 29.9970000  0  4G 2G13G19G15
  20127004.4854   -8132749.50748  -6281939.29763
  21582426.212   -13031718.376 6  -8524157.57521
  23056349.189    10055878.565 5   7834216.66721
  23096471.087    -5083775.056 5  -3445479.80321
 92  5 27 20  5 59.9970000  0  4G 2G13G19G15
  20126669.7514   -8134516.60148  -6283316.24963
  21558822.821   -13155753.177 6  -8620807.89121
  23069590.8764   10125464.33045   7888439.14761
  23093179.2744   -5101074.71946  -3458960.01261
 92  5 27 20  6 29.9970000  0  4G 2G13G19G15
  20126357.9314   -8136135.86448  -6284578.01163
  21535278.1574  -13279474.60546  -8717214.00861
  23082866.720    10195239.145 5   7942808.91521
  23089994.118    -5117826.232 6  -3472013.08521
 92  5 27 20  6 59.9970000  0  4G 2G13G19G15
  20126079.3684   -8137614.66248  -6285730.32663
  21511793.126   -13402887.943 6  -8813380.05821
  23096178.1734   10265189.31845   7997315.31361
  23086910.2594   -5134031.79246  -3484640.71461
 92  5 27 20  7 29.9970000  0  4G 2G13G19G15
  20125827.0244   -8138941.57548  -6286764.27863
  21488370.915   -13525977.455 6  -8909293.76121
  23109524.3924   10335324.49044   8051965.85661
  23083936.6814   -5149669.44346  -3496825.85961
 92  5 27 20  7 59.9970000  0  4G 2G13G19G15
  20125608.3684   -8140087.42748  -6287657.15663
  21465010.431   -13648735.220 6  -9004948.97921
  23122909.087    10405657.624 5   8106770.66621
  23081066.774    -5164731.493 6  -3508562.43921
 92  5 27 20  8 29.9970000  0  4G 2G13G19G15
  20125425.3844   -8141047.47648  -6288405.24463
  21441712.845   -13771161.019 6  -9100345.50621
  23136324.7984   10476174.03145   8161718.27761
  23078306.798    -5179248.978 5  -3519874.74221
 92  5 27 20  8 59.9970000  0  4G 2G13G19G15
  20125278.7744   -8141823.16748  -6289009.67663
  21418480.790   -13893253.004 6  -9195481.92121
  23149783.5714   10546879.03945   8216812.88461
  23075637.9704   -5193244.31045  -3530780.09661
 92  5 27 20  9 29.9970000  0  4G 2G13G19G15
  20125167.5644   -8142410.52648  -6289467.35763
  21395311.954   -14015003.080 6  -9290351.93821
  23163272.587    10617780.098 4   8272060.25121
  23073078.103    -5206716.435 5  -3541277.81721
 92  5 27 20  9 59.9970000  0  4G 2G13G19G15
  20125084.0324   -8142841.15048  -6289802.90763
  21372204.392   -14136427.680 6  -9384968.30721
  23176795.3454   10688843.14945   8327433.79861
  23070613.095    -5219692.120 6  -3551388.67021
 92  5 27 20 10 29.9970000  0  4G 2G13G19G15
  20125031.0564   -8143115.51748
  21349162.587   -14257515.242 6  -9479322.08721
  23190352.228    10760072.776 5   8382937.19421
  23068238.5244   -5232154.63846  -3561099.69561
 92  5 27 20 10 59.9970000  0  4G 2G13G19G15
  20125013.8214   -8143219.35348
  21326185.6424  -14378256.95546  -9573406.34761
  23203943.8454   10831491.78845   8438588.14961
  23065970.548    -5244065.397 6  -3570380.71521
 92  5 27 20 11 29.9970000  0  4G 2G13G19G15
  20125022.5244   -8143171.72948
  21303270.7744  -14498675.95046  -9667239.18461
  23217565.423    10903063.440 4   8494358.02821
  23063809.7744   -5255430.41046  -3579236.53661
 92  5 27 20 11 59.9970000  0  4G 2G13G19G15
  20125064.251    -8142934.830 8
  21280424.571   -14618737.001 6  -9760793.06421
  23231220.8994   10974828.55244   8550278.65461
  23061757.954    -5266211.178 6  -3587637.08021
 92  5 27 20 12 29.9970000  0  4G 2G13G19G15
  20125144.2434   -8142518.04648  -6289551.15063
  21257644.2434  -14738450.16146  -9854075.89061
  23244915.017    11046788.606 4   8606351.14621
  23059816.915    -5276426.151 6  -3595596.74221
 92  5 27 20 12 59.9970000  0  4G 2G13G19G15
  20125255.9704   -8141931.16348  -6289093.84863
  21234929.814   -14857810.573 6  -9947083.85821
  23258646.4854   11118939.44944   8662572.31861
  23057972.009    -5286094.788 6  -3603130.67821
 92  5 27 20 13 29.9970000  0  4G 2G13G19G15
  20125396.2284   -8141185.37648  -6288512.72263
  21212284.946   -14976812.749 6 -10039812.66821
  23272405.0714   11191265.55044   8718930.03961
  23056234.4784   -5295237.76346  -3610255.03161
 92  5 27 20 13 59.9970000  0  4G 2G13G19G15
  20125571.4544   -8140281.57848  -6287808.46563
  21189710.118   -15095441.815 6 -10132250.76321
  23286205.353    11263780.387 4   8775434.82321
  23054588.7284   -5303860.49646  -3616973.97861
 92  5 27 20 14 29.9970000  0  4G 2G13G19G15
  20125767.1104   -8139243.25148  -6286999.38463
  21167206.2824  -15213703.59646 -10224402.65461
  23300036.306    11336463.216 4   8832070.50721
  23053045.9464   -5311976.99946  -3623298.47961
 92  5 27 20 14 59.9970000  0  4G 2G13G19G15
  20125990.0794   -8138069.80948  -6286085.02963
  21144768.9624  -15331606.55946 -10316274.94561
  23313899.415    11409291.692 4   8888819.67521
  23051603.2824   -5319588.06946  -3629229.11161
 92  5 27 20 15 29.9970000  0  4G 2G13G19G15
  20126244.8294   -8136731.17048  -6285041.94663
  21122404.696   -15449135.419 6 -10407855.75021
  23327786.720    11482269.213 4   8945684.99021
  23050250.532    -5326651.705 6  -3634733.23721
 92  5 27 20 15 59.9970000  0  4G 2G13G19G15
  20126530.2434   -8135232.92548  -6283874.50063
  21100110.165   -15566302.994 6 -10499154.98621
  23341698.337    11555383.733 4   9002657.07621
  23049011.235    -5333170.033 6  -3639812.39421
 92  5 27 20 16 29.9970000  0  4G 2G13G19G15
  20126850.8764   -8133561.61548  -6282572.19363
  21077881.0794  -15683108.90846 -10590172.46861
  23355635.4854   11628629.23343   9059731.17961
  23047876.6034   -5339133.92746  -3644459.55461
 92  5 27 20 16 59.9970000  0  4G 2G13G19G15
  20127210.9624   -8131669.99048  -6281098.20863
  21055726.5174  -15799523.73946 -10680885.19561
  23369605.173    11702032.923 4   9116928.53121
  23046848.962    -5344508.536 5  -3648647.49821
 92  5 27 20 17 29.9970000  0  4G 2G13G19G15
  20127607.6574   -8129576.91148  -6279467.25064
  21033647.1264  -15915550.77846 -10771295.72961
  23383605.4074   11775603.94943   9174256.33661
  23045945.939    -5349305.786 6  -3652385.57021
 92  5 27 20 17 59.9970000  0  4G 2G13G19G15
  20128040.3844   -8127298.56448  -6277691.92364
  21011642.431   -16031192.410 6 -10861405.96021
  23397639.782    11849355.142 3   9231724.46021
  23045134.4154   -5353563.21346  -3655703.00861
 92  5 27 20 18 29.9970000  0  4G 2G13G19G15
  20128509.1104   -8124841.89048  -6275777.64563
  20989708.923   -16146445.308 6 -10951213.28721
  23411712.204    11923288.031 2   9289334.19121
  23044426.3764   -5357291.86846  -3658608.42161
 92  5 27 20 18 59.9970000  0  4G 2G13G19G15
  20129007.2744   -8122227.62748  -6273740.56063
  20967853.954   -16261308.427 6 -11040716.86221
  23425811.665    11997407.141 3   9347089.05121
  23043818.134    -5360498.161 6  -3661106.79021
 92  5 27 20 19 29.9970000  0  4G 2G13G19G15
  20129529.6964   -8119487.38548  -6271605.31563
  20946066.3924  -16375789.96446 -11129923.14561
  23439953.978    12071700.819 4   9404979.91221
  23043293.524    -5363207.071 5  -3663217.59021
 92  5 27 20 19 59.9970000  0  4G 2G13G19G15
  20130074.3064   -8116621.24748  -6269371.97263
  20924354.4314  -16489894.31546 -11218835.46761
  23454120.946    12146147.113 4   9462989.67421
  23042874.220    -5365422.954 6  -3664944.22321
 92  5 27 20 20 29.9970000  0  4G 2G13G19G15
  20130647.5014   -8113606.73848  -6267023.00863
  20902715.7124  -16603601.38646 -11307438.25761
  23468320.0954   12220759.02444   9521128.46561
  23042552.9314   -5367110.29346  -3666258.98961
 92  5 27 20 20 59.9970000  0  4G 2G13G19G15
  20131257.5404   -8110400.57648  -6264524.70863
  20881159.439   -16716873.727 6 -11395702.28321
  23482553.806    12295573.751 4   9579425.30521
  23042343.064    -5368223.267 6  -3667126.17021
 92  5 27 20 21 29.9970000  0  4G 2G13G19G15
  20131901.6814   -8107009.22348  -6261882.09663
  20859684.0874  -16829737.88046 -11483648.25761
  23496822.267    12370549.275 4   9637847.46421
  23042237.603    -5368785.474 6
 92  5 27 20 21 59.9970000  0  4G 2G13G19G15
  20132585.2824   -8103425.12948  -6259089.30563
  20838283.814   -16942195.013 6 -11571277.03621
  23511115.6034   12445685.05443   9696394.52561
  23042235.9784   -5368776.44046
 92  5 27 20 22 29.9970000  0  4G 2G13G19G15
  20133306.2434   -8099636.43148  -6256137.08063
  20816963.7594  -17054228.70846 -11658575.91161
  23525455.103    12520999.099 3   9755080.38221
  23042346.626    -5368183.166 6
 92  5 27 20 22 59.9970000  0  4G 2G13G19G15
  20134062.8604   -8095654.28748  -6253034.11563
  20795721.712   -17165844.837 6 -11745549.38321
  23539814.1424   12596475.17743   9813892.51661
  23042572.5014   -5367010.49046  -3666181.03661
 92  5 27 20 23 29.9970000  0  4G 2G13G19G15
  20134854.6034   -8091498.81948  -6249796.10163
  20774564.360   -17277042.333 6 -11832196.65221
  23554207.9234   12672107.40643   9872826.33661
  23042911.657    -5365260.801 6  -3664817.60521
 92  5 27 20 23 59.9970000  0  4G 2G13G19G15
  20135674.5244   -8087186.37048  -6246435.75663
  20753483.1424  -17387820.17646 -11918516.92861
  23568633.103    12747898.011 3   9931883.56621
  23043343.321    -5362948.851 5  -3663016.04221
 92  5 27 20 24 29.9960000  0  4G 2G13G19G15
  20136524.5434   -8082722.81948  -6242957.68463
  20732481.895   -17498180.044 6 -12004511.52121
  23583080.2704   12823827.32943   9991048.88161
  23043887.4104   -5360099.31145  -3660795.60461
 92  5 27 20 24 59.9960000  0  4G 2G13G19G15
  20137401.9574   -8078105.88448  -6239360.08263
  20711560.363   -17608127.144 6 -12090184.45721
  23597556.0594   12899897.60243  10050324.02161
  23044539.1064   -5356708.42345  -3658153.32661
 92  5 27 20 25 29.9960000  0  4G 2G13G19G15
  20138312.3794   -8073320.32748  -6235631.08463
  20690717.395   -17717649.522 6 -12175526.45721
  23612060.020    12976120.293 3  10109717.92421
  23045279.457    -5352776.776 5  -3655089.67321
 92  5 27 20 25 59.9960000  0  4G 2G13G19G15
  20139259.4734   -8068340.39248  -6231750.62563
  20669958.1914  -17826738.88846 -12260531.05761
  23626596.7464   13052503.04443  10169236.51061
  23046140.1844   -5348303.83546  -3651604.24261
 92  5 27 20 26 29.9960000  0  4G 2G13G19G15
  20140244.2234   -8063169.00348
  20649282.3244  -17935396.91447 -12345199.52161
  23641161.1454   13129042.84942  10228877.41861
  23047092.4184   -5343277.80146
 92  5 27 20 26 59.9960000  0  4G 2G13G19G15
  20141262.8874   -8057819.30348  -6223552.39163
  20628686.777   -18043630.548 7 -12429537.31221
  23655755.918    13205731.215 2  10288634.12321
  23048153.5274   -5337716.31846  -3643354.20861
 92  5 27 20 27 29.9960000  0  4G 2G13G19G15
  20142316.1214   -8052290.21048  -6219244.02763
  20608172.356   -18151429.580 6 -12513536.43521
  23670384.0744   13282579.05342  10348515.08361
  23049306.8634   -5331619.50345  -3638603.41161
 92  5 27 20 27 59.9960000  0  3G 2G13G15
  20143403.4964   -8046574.71548  -6214790.40963
  20587748.0204  -18258762.98646 -12597172.75461
  23050579.941    -5324961.592 5  -3633415.36421
 92  5 27 20 28 29.9960000  0  3G 2G13G15
  20144521.5274   -8040703.36748  -6210215.33763
  20567407.645   -18365650.520 7 -12680461.63121
  23051935.527    -5317772.668 5  -3627813.55021
 92  5 27 20 28 59.9960000  0  3G 2G13G15
  20145666.4964   -8034678.47748  -6205520.63764
  20547152.0744  -18472095.31646 -12763405.51661
  23053412.285    -5310076.108 5  -3621816.22821
 92  5 27 20 29 29.9960000  0  3G 2G13G15
  20146840.1134   -8028513.29148  -6200716.61163
  20526977.7934  -18578108.78346 -12846013.31161
  23054968.8714   -5301865.12845  -3615418.01861
 92  5 27 20 29 59.9960000  0  3G 2G13G15
  20148046.7774   -8022175.77848  -6195778.30163
  20506888.738   -18683677.544 7 -12928274.57121
  23056637.660    -5293116.944 5  -3608601.19621
 92  5 27 20 30 29.9960000  0  4G 2G13G19G15
  20149292.6294   -8015628.97648  -6190676.91363
  20486885.6764  -18788790.44046 -13010180.61661
  23758747.5354         -0.19553
  23058402.309    -5283822.709 5  -3601358.91321
 92  5 27 20 30 59.9960000  0  4G 2G13G19G15
  20150577.6134   -8008876.39448  -6185415.16863
  20466970.371   -18893445.728 7 -13091730.08521
  23773568.363       77878.283 4
  23060277.0984   -5273971.52745  -3593682.65661
 92  5 27 20 31 29.9960000  0  3G 2G13G15
  20151898.9104   -8001926.29948  -6179999.52963
  20447141.746   -18997646.714 6 -13172925.55521
  23062265.184    -5263545.520 5  -3585558.43921
 92  5 27 20 31 59.9960000  0  3G 2G13G15
  20153260.0434   -7994784.32348  -6174434.37263
  20427402.0204  -19101384.05147 -13253759.73161
  23064349.574    -5252558.311 5  -3576996.95121
 92  5 27 20 32 29.9960000  0  3G 2G13G15
  20154649.535    -7987471.232 8  -6168735.88423
  20407749.238   -19204655.145 7 -13334230.60621
  23066549.6764   -5241019.19445  -3568005.41061
 92  5 27 20 32 59.9960000  0  3G 2G13G15
  20156067.7704   -7980016.83648  -6162927.28063
  20388186.106   -19307465.122 7 -13414342.17321
  23068850.6684   -5228927.22245  -3558583.02061
 92  5 27 20 33 29.9960000  0  3G 2G13G15
  20157516.6524   -7972413.33448  -6157002.49963
  20368709.926   -19409809.745 7 -13494091.12721
  23071249.3094   -5216290.93845  -3548736.51761
 92  5 27 20 33 59.9960000  0  3G 2G13G15
  20158991.5824   -7964656.23348  -6150958.02563
  20349321.660   -19511690.237 7 -13573478.42521
  23073757.7154   -5203138.36145  -3538487.75961
 92  5 27 20 34 29.9960000  0  3G 2G13G15
  20160500.0744   -7956728.26248  -6144780.40163
  20330024.207   -19613101.724 7 -13652500.24721
  23076359.871    -5189453.179 5  -3527823.97721
 92  5 27 20 34 59.9960000  0  3G 2G13G15
  20162043.785    -7948618.897 8  -6138461.43323
  20310818.043   -19714038.492 7 -13731152.18221
  23079065.645    -5175237.686 5  -3516746.92221
 92  5 27 20 35 29.9960000  0  3G 2G13G15
  20163621.1134   -7940327.33048  -6132000.48463
  20291697.481   -19814508.418 6 -13809440.33521
  23081873.277    -5160509.240 5  -3505270.17421
 92  5 27 20 35 59.9960000  0  3G 2G13G15
  20165233.926    -7931854.269 8  -6125398.13423
  20272667.934   -19914503.713 7 -13887358.64221
  23084771.2154   -5145259.24345  -3493387.09761
 92  5 27 20 36 29.9960000  0  3G 2G13G15
  20166880.3324   -7923201.92248  -6118656.07063
  20253733.4494  -20014014.83147 -13964899.66761
  23087773.9814   -5129461.22545  -3481076.87961
 92  5 27 20 36 59.9960000  0  3G 2G13G15
  20168559.309    -7914373.147 8  -6111776.53023
  20234889.895   -20113040.470 7 -14042062.40821
  23090889.309    -5113124.961 5  -3468347.28821
 92  5 27 20 37 29.9960000  0  3G 2G13G15
  20170272.629    -7905372.154 8  -6104762.79723
  20216136.332   -20211580.352 7 -14118846.63921
  23094098.0354   -5096245.80845  -3455194.66361
 92  5 27 20 37 59.9960000  0  3G 2G13G15
  20172018.793    -7896205.074 8  -6097619.64523
  20197478.129   -20309635.242 7 -14195252.94421
  23097416.863    -5078814.653 5  -3441611.91621
 92  5 27 20 38 29.9960000  0  3G 2G13G15
  20173791.606    -7886875.387 8  -6090349.78623
  20178910.270   -20407210.449 7 -14271285.47421
  23100834.395    -5060835.655 5  -3427602.27121
 92  5 27 20 38 59.9960000  0  3G 2G13G15
  20175599.4414   -7877384.25648  -6082954.11863
  20160432.9734  -20504306.21647 -14346944.40461
  23104357.6214   -5042327.53045  -3413180.34861
 92  5 27 20 39 29.9960000  0  3G 2G13G15
  20177435.9414   -7867728.91948  -6075430.49363
  20142048.6844  -20600921.22847 -14422228.73561
  23107983.5904   -5023282.23845  -3398339.82761
 92  5 27 20 39 59.9960000  0  3G 2G13G15
  20179305.1064   -7857912.54248  -6067781.38763
  20123754.121   -20697059.844 7 -14497141.84121
  23111709.8714   -5003706.17145  -3383085.69061
 92  5 27 20 40 29.9960000  0  3G 2G13G15
  20181207.957    -7847914.425 8  -6059990.67323
  20105552.621   -20792705.125 7 -14571670.53321
  23115532.684    -4983609.382 5  -3367425.84921
 92  5 27 20 40 59.9960000  0  3G 2G13G15
  20183146.066    -7837733.458 8  -6052057.47623
  20087445.918   -20887860.281 7 -14645817.31521
  23119449.309    -4963002.470 5  -3351368.47221
 92  5 27 20 41 29.9960000  0  3G 2G13G15
  20185115.8164   -7827380.31248  -6043990.10763
  20069428.582   -20982536.544 7 -14719590.92421
  23123466.902    -4941896.664 5  -3334922.38921
 92  5 27 20 41 59.9960000  0  3G 2G13G15
  20187116.262    -7816864.855 8  -6035796.27123
  20051502.824   -21076735.102 7 -14792992.31021
  23127576.457    -4920307.656 5  -3318099.73521
 92  5 27 20 42 29.9960000  0  3G 2G13G15
  20189147.8244   -7806188.52048  -6027477.05463
  20033670.691   -21170451.840 7 -14866018.25021
  23131779.363    -4898240.927 5  -3300904.88921
 92  5 27 20 42 59.9960000  0  3G 2G13G15
  20191208.9344   -7795357.46948  -6019037.29063
  20015926.582   -21263693.852 7 -14938674.27021
  23136066.7384   -4875691.55145  -3283333.88461
 92  5 27 20 43 29.9960000  0  3G 2G13G15
  20193296.3954   -7784385.38448  -6010487.62563
  19998272.231   -21356464.838 7 -15010963.26221
  23140445.5824   -4852668.76645  -3265394.05261
 92  5 27 20 43 59.9960000  0  3G 2G13G15
  20195417.8094   -7773245.71848  -6001807.38663
  19980712.8874  -21448741.37647 -15082866.96961
  23144921.559    -4829149.759 5  -3247067.52321
 92  5 27 20 44 29.9960000  0  3G 2G13G15
  20197571.0044   -7761931.23248  -5992990.92263
  19963246.949   -21540526.848 7 -15154388.02321
  23149495.9414   -4805128.60945  -3228349.70161
 92  5 27 20 44 59.9960000  0  3G 2G13G15
  20199761.520    -7750406.786 8  -5984010.85623
  19945879.449   -21631792.080 7 -15225503.70021
  23154171.035    -4780561.454 5  -3209206.41821
 92  5 27 20 45 29.9960000  0  3G 2G13G15
  20201991.9814   -7738695.33148  -5974885.05563
  19928609.7314  -21722545.70547 -15296220.72961
  23158949.1524   -4755453.01045  -3189641.39861
 92  5 27 20 45 59.9960000  0  3G 2G13G15
  20204253.121    -7726806.602 8  -5965621.14023
  19911434.856   -21812794.150 7 -15366544.09521
  23163832.004    -4729811.228 5  -3169660.73621
 92  5 27 20 46 29.9960000  0  3G 2G13G15
  20206546.9734   -7714757.26548  -5956232.05963
  19894354.832   -21902543.130 7 -15436478.28421
  23168808.2154   -4703646.20545  -3149272.43861
 92  5 27 20 46 59.9960000  0  3G 2G13G15
  20208868.4184   -7702556.87648  -5946725.27663
  19877373.582   -21991786.650 7 -15506018.60621
  23173880.035    -4676968.619 5  -3128484.66821
 92  5 27 20 47 29.9960000  0  3G 2G13G15
  20211211.5664   -7690244.09048  -5937130.91463
  19860483.3094  -22080547.27747 -15575182.65361
  23179051.051    -4649829.606 5  -3107337.35721
 92  5 27 20 47 59.9960000  0  3G 2G13G15
  20213583.0124   -7677783.30248  -5927421.23263
  19843689.6214  -22168799.83847 -15643950.79261
  23184304.246    -4622213.018 5  -3085817.91921
 92  5 27 20 48 29.9960000  0  3G 2G13G15
  20215983.098    -7665170.185 8  -5917592.85523
  19826993.137   -22256543.470 7 -15712322.36921
  23189653.098    -4594114.187 5  -3063922.74121
 92  5 27 20 48 59.9960000  0  3G 2G13G15
  20218410.887    -7652405.295 8  -5907646.21523
  19810391.4344  -22343782.15947 -15780300.49261
  23195087.8484   -4565544.29045  -3041660.46461
 92  5 27 20 49 29.9960000  0  3G 2G13G15
  20220873.098    -7639470.005 8  -5897566.79623
  19793886.9884  -22430509.27447 -15847879.97961
  23200613.0514   -4536488.07545  -3019019.24261
 92  5 27 20 49 59.9960000  0  3G 2G13G15
  20223372.207    -7626340.760 8  -5887336.24523
  19777482.9264  -22516717.14547 -15915054.86761
  23206240.5204   -4506926.99545  -2995984.64461
 92  5 27 20 50 29.9960000  0  3G 2G13G15
  20225908.395    -7613018.940 8  -5876955.63723
  19761177.7234  -22602401.68847 -15981821.96161
  23211960.4184   -4476872.54945  -2972565.57861
 92  5 27 20 50 59.9960000  0  3G 2G13G15
  20228479.199    -7599507.468 8  -5866427.24623
  19744969.5594  -22687570.34747 -16048187.07761
  23217771.5744   -4446341.97645  -2948775.49561
 92  5 27 20 51 29.9960000  0  3G 2G13G15
  20231083.793    -7585814.826 8  -5855757.68723
  19728863.082   -22772222.383 7 -16114149.62121
  23223670.6684   -4415327.33245  -2924608.23261
 92  5 27 20 51 59.9960000  0  3G 2G13G15
  20233718.449    -7571965.629 8  -5844966.13523
  19712850.0354  -22856357.24947 -16179709.19161
  23229666.777    -4383834.947 5  -2900068.69321
 92  5 27 20 52 29.9960000  0  3G 2G13G15
  20236378.684    -7557989.723 8  -5834075.83823
  19696936.9964  -22939984.05847 -16244872.85361
  23235742.7774   -4351870.28145  -2875161.14761
 92  5 27 20 52 59.9960000  0  3G 2G13G15
  20239062.551    -7543881.670 8  -5823082.58123
  19681123.4814  -23023089.29047 -16309630.10561
  23241923.207    -4319397.257 5  -2849857.47721
 92  5 27 20 53 29.9960000  0  3G 2G13G15
  20241770.887    -7529655.602 8  -5811997.36923
  19665407.371   -23105676.714 7 -16373983.86621
  23248205.582    -4286415.060 5  -2824157.10021
 92  5 27 20 53 59.9960000  0  3G 2G13G15
  20244504.2384   -7515287.98948  -5800801.85363
  19649790.4344  -23187744.29747 -16437932.56461
  23254572.418    -4252932.945 5  -2798067.09421
 92  5 27 20 54 29.9960000  0  3G 2G13G15
  20247273.043    -7500743.821 8  -5789468.77223
  19634274.5204  -23269283.56747 -16501469.58861
  23261040.324    -4218950.974 5  -2771587.67221
 92  5 27 20 54 59.9960000  0  3G 2G13G15
  20250079.332    -7485993.512 8  -5777975.05423
  19618860.5594  -23350280.35147 -16564583.89461
  23267596.8014   -4184467.38844  -2744717.33761
 92  5 27 20 55 29.9960000  0  3G 2G13G15
  20252925.949    -7471035.094 8  -5766319.17923
  19603548.5904  -23430745.20747 -16627283.71661
  23274254.0204   -4149519.41945  -2717485.13261
 92  5 27 20 55 59.9960000  0  3G 2G13G15
  20255812.387    -7455875.661 8  -5754506.66723
  19588336.9104  -23510684.15947 -16689573.74261
  23280987.0044   -4114118.75945  -2689900.20761
 92  5 27 20 56 29.9960000  0  3G 2G13G15
  20258728.731    -7440537.438 8  -5742554.84123
  19573225.4414  -23590098.34047 -16751454.85261
  23287815.895    -4078261.838 5  -2661959.70121
 92  5 27 20 56 59.9960000  0  3G 2G13G15
  20261681.637    -7425025.290 8  -5730467.48223
  19558214.8794  -23668977.88147 -16812919.36761
  23294723.0044   -4041940.48544  -2633657.33261
 92  5 27 20 57 29.9960000  0  3G 2G13G15
  20264660.9814   -7409364.94148  -5718264.65363
  19543301.5434  -23747333.82947 -16873975.88461
  23301722.5514   -4005167.59044  -2605003.10861
 92  5 27 20 57 59.9960000  0  3G 2G13G15
  20267669.270    -7393565.876 8  -5705953.72523
  19528494.223   -23825154.916 7 -16934615.62421
  23308810.8164   -3967927.86845  -2575985.16261
 92  5 27 20 58 29.9960000  0  3G 2G13G15
  20270702.449    -7377624.488 8  -5693531.90423
  19513789.5744  -23902434.37447 -16994833.31261
  23315983.2544   -3930223.68245  -2546605.26361
 92  5 27 20 58 59.9960000  0  3G 2G13G15
  20273762.262    -7361539.834 8  -5680998.45123
  19499184.2854  -23979176.67747 -17054632.44961
  23323245.356    -3892070.913 5  -2516875.81721
 92  5 27 20 59 29.9960000  0  3G 2G13G15
  20276852.582    -7345302.490 8  -5668346.02423
  19484687.4884  -24055367.64247 -17114001.96762
  23330595.7774   -3853449.98945  -2486781.62161
 92  5 27 20 59 59.9960000  0  3G 2G13G15
  20279972.207    -7328897.715 8  -5655563.12323
  19470291.0044  -24131013.03547 -17172946.36362
  23338031.8324   -3814369.19545  -2456329.06461
 92  5 27 21  0 29.9960000  0  2G 2G13
  20283132.199    -7312307.235 8  -5642635.51323
  19455999.6914  -24206120.13147 -17231471.30361
 92  5 27 21  0 59.9960000  0  2G 2G13
  20286325.051    -7295520.043 8  -5629554.62323
  19441808.3244  -24280687.29447 -17289575.52461
 92  5 27 21  1 29.9960000  0  2G 2G13
  20289556.5744   -7278529.99248  -5616315.66463
  19427723.0434  -24354708.68347 -17347254.46061
 92  5 27 21  1 59.9950000  0  2G 2G13
  20292830.249    -7261340.542 8  -5602921.32822
  19413739.8584  -24428189.52447 -17404512.19961
 92  5 27 21  2 29.9950000  0  2G 2G13
  20296137.624    -7243964.095 8  -5589381.29322
  19399862.5384  -24501120.50147 -17461341.46062
 92  5 27 21  2 59.9950000  0  2G 2G13
  20299472.827    -7226443.296 8  -5575728.75222
  19386086.2734  -24573512.91947 -17517751.07461
 92  5 27 21  3 29.9950000  0  2G 2G13
  20302832.3514   -7208780.80848  -5561965.82062
  19372411.6874  -24645363.71847 -17573738.64962
 92  5 27 21  3 59.9950000  0  2G 2G13
  20306222.108    -7190966.375 8  -5548084.48123
  19358843.2654  -24716668.73747 -17629300.94162
 92  5 27 21  4 29.9950000  0  2G 2G13
  20309641.296    -7172996.807 8  -5534082.26222
  19345378.8434  -24787431.27747 -17684440.52362
 92  5 27 21  4 59.9950000  0  2G 2G13
  20313100.233    -7154826.965 8  -5519923.97422
  19332019.0304  -24857634.46447 -17739144.24862
 92  5 27 21  5 29.9950000  0  2G 2G13
  20316598.5774   -7136437.04848  -5505594.21262
  19318766.1714  -24927287.53547 -17793419.31662
 92  5 27 21  5 59.9950000  0  2G 2G13
  20320138.866    -7117835.753 8  -5491099.71922
  19305612.6714  -24996391.60047 -17847266.59262
 92  5 27 21  6 29.9950000  0  3G 2G13G12
  20323716.4294   -7099037.75048  -5476451.95762
  19292567.8984  -25064945.98947 -17900685.54062
  23290649.1324    -115851.64645
 92  5 27 21  6 59.9950000  0  3G 2G13G12
  20327326.4294   -7080058.23648  -5461662.75562
  19279627.991   -25132949.589 7 -17953675.30721
  23268601.507     -231738.574 5
 92  5 27 21  7 29.9950000  0  3G 2G13G12
  20330967.608    -7060925.960 8  -5446754.53022
  19266792.9684  -25200405.99347 -18006238.68262
  23246535.929     -347663.481 4        -0.25931
 92  5 27 21  7 59.9950000  0  3G 2G13G12
  20334628.640    -7041674.079 7  -5431753.09222
  19254058.9054  -25267320.80547 -18058380.03362
  23224463.4054    -463631.48444    -90364.89461
 92  5 27 21  8 29.9950000  0  3G 2G13G12
  20338320.749    -7022291.468 7  -5416649.78722
  19241430.9214  -25333687.80347 -18110094.51962
  23202389.7334    -579635.31544   -180757.46961
 92  5 27 21  8 59.9950000  0  3G 2G13G12
  20342033.3984   -7002772.55647  -5401440.25962
  19228903.523   -25399513.717 7 -18161387.38522
  23180312.530     -695680.417 5   -271182.17421
 92  5 27 21  9 29.9950000  0  3G 2G13G12
  20345777.593    -6983106.085 8  -5386115.77222
  19216480.5854  -25464794.34347 -18212255.35062
  23158222.655     -811761.499 5   -361634.89321
 92  5 27 21  9 59.9950000  0  3G 2G13G12
  20349553.054    -6963264.283 7  -5370654.65622
  19204164.7184  -25529512.67847 -18262685.17462
  23136126.483     -927860.661 4   -452101.76721
 92  5 27 21 10 29.9950000  0  3G 2G13G12
  20353359.1404   -6943258.07747  -5355065.42962
  19191952.4054  -25593690.93947 -18312694.15662
  23114025.5074   -1043998.72744   -542598.88461
 92  5 27 21 10 59.9950000  0  3G 2G13G12
  20357202.5854   -6923059.98047  -5339326.68262
  19179847.491   -25657307.044 7 -18362265.09122
  23091927.358    -1160152.448 4   -633108.23021
 92  5 27 21 11 29.9950000  0  3G 2G13G12
  20361083.780    -6902666.058 7  -5323435.34522
  19167849.5304  -25720353.45647 -18411392.11062
  23069822.1874   -1276312.87744   -723622.80261
 92  5 27 21 11 59.9950000  0  3G 2G13G12
  20365001.226    -6882072.542 7  -5307388.48422
  19155960.8274  -25782832.73547 -18460077.19962
  23047716.5774   -1392481.38944   -814143.64161
 92  5 27 21 12 29.9950000  0  3G 2G13G12
  20368956.757    -6861286.407 7  -5291191.53522
  19144176.429   -25844757.795 7 -18508330.44322
  23025602.624    -1508669.570 4   -904679.84821
 92  5 27 21 12 59.9950000  0  3G 2G13G12
  20372948.710    -6840317.624 7  -5274852.25422
  19132494.788   -25906142.906 7 -18556162.93622
  23003488.5544   -1624890.78644   -995241.75861
 92  5 27 21 13 29.9950000  0  3G 2G13G12
  20376972.819    -6819168.458 7  -5258372.43022
  19120914.9604  -25966987.19347 -18603574.01462
  22981367.132    -1741142.361 5  -1085827.34021
 92  5 27 21 13 59.9950000  0  3G 2G13G12
  20381032.546    -6797833.528 7  -5241747.84222
  19109443.007   -26027280.412 7 -18650555.69122
  22959247.0304   -1857412.70145  -1176427.56861
 92  5 27 21 14 29.9950000  0  3G 2G13G12
  20385126.476    -6776319.102 7  -5224983.38922
  19098073.843   -26087019.354 7 -18697105.46622
  22937114.523    -1973697.062 5  -1267038.67521
 92  5 27 21 14 59.9950000  0  3G 2G13G12
  20389256.2184   -6754616.35547  -5208072.19662
  19086815.4374  -26146189.06647 -18743211.68262
  22914986.6874   -2089979.28545  -1357648.10561
 92  5 27 21 15 29.9950000  0  3G 2G13G12
  20393424.3124   -6732727.94447  -5191016.31662
  19075664.8984  -26204781.89847 -18788868.38162
  22892859.4994   -2206250.17445  -1448248.76861
 92  5 27 21 15 59.9950000  0  3G 2G13G12
  20397617.6014   -6710672.20847  -5173830.07962
  19064622.9684  -26262815.09148 -18834088.98862
  22870732.046    -2322525.327 5  -1538852.72921
 92  5 27 21 16 29.9950000  0  3G 2G13G12
  20401847.8744   -6688443.90047  -5156509.35862
  19053684.358   -26320289.620 7 -18878874.29222
  22848607.077    -2438804.451 5  -1629459.76121
 92  5 27 21 16 59.9950000  0  3G 2G13G12
  20406111.351    -6666044.750 7  -5139055.53522
  19042851.273   -26377215.969 7 -18923232.43822
  22826474.398    -2555095.747 5  -1720076.29721
 92  5 27 21 17 29.9950000  0  3G 2G13G12
  20410406.601    -6643475.537 7  -5121469.17622
  19032123.616   -26433594.494 7 -18967163.70722
  22804347.718    -2671398.392 5  -1810701.65321
 92  5 27 21 17 59.9950000  0  3G 2G13G12
  20414735.429    -6620729.186 7  -5103744.78122
  19021500.718   -26489420.145 7 -19010664.15822
  22782210.9524   -2787705.86745  -1901330.80661
 92  5 27 21 18 29.9950000  0  3G 2G13G12
  20419100.960    -6597786.962 7  -5085867.77622
  19010985.8824  -26544673.18147 -19053718.42362
  22760082.2104   -2903996.37445  -1991946.71361
 92  5 27 21 18 59.9950000  0  3G 2G13G12
  20423500.437    -6574667.745 7  -5067852.84122
  19000579.624   -26599356.825 7 -19096329.00922
  22737950.3434   -3020271.12645  -2082550.35061
 92  5 27 21 19 29.9950000  0  3G 2G13G12
  20427929.9214   -6551395.56247  -5049718.73562
  18990279.546   -26653481.537 7 -19138504.05822
  22715827.6404   -3136538.93745  -2173148.58461
 92  5 27 21 19 59.9950000  0  3G 2G13G12
  20432385.6404   -6527974.46447  -5031468.57662
  18980085.687   -26707051.309 7 -19180246.69322
  22693706.6794   -3252801.56645  -2263742.76361
 92  5 27 21 20 29.9950000  0  3G 2G13G12
  20436875.8354   -6504385.35347  -5013087.50462
  18970000.710   -26760055.748 7 -19221548.80922
  22671590.6714   -3369047.11045  -2354323.64061
 92  5 27 21 20 59.9950000  0  3G 2G13G12
  20441392.8904   -6480642.74147  -4994586.82562
  18960016.866   -26812511.424 7 -19262423.32022
  22649467.9994   -3485290.28045  -2444902.67561
 92  5 27 21 21 29.9950000  0  3G 2G13G12
  20445946.905    -6456710.379 7  -4975938.28022
  18950143.733   -26864399.829 8 -19302855.80222
  22627346.6324   -3601510.63445  -2535463.90561
 92  5 27 21 21 59.9950000  0  3G 2G13G12
  20450541.843    -6432568.442 7  -4957126.43822
  18940378.835   -26915713.772 8 -19342840.64722
  22605239.5934   -3717698.87345  -2626000.15061
 92  5 27 21 22 29.9950000  0  3G 2G13G12
  20455169.968    -6408241.757 7  -4938170.62422
  18930717.280   -26966478.261 8 -19382397.35322
  22583131.944    -3833877.863 5  -2716529.16921
 92  5 27 21 22 59.9950000  0  3G 2G13G12
  20459839.2574   -6383711.96347  -4919056.55962
  18921166.929   -27016670.043 8 -19421507.78822
  22561028.405    -3950022.655 5  -2807031.56121
 92  5 27 21 23 29.9950000  0  3G 2G13G12
  20464544.6944   -6358976.85547  -4899782.48862
  18911723.718   -27066295.846 8 -19460177.20522
  22538935.0854   -4066137.85645  -2897510.88261
 92  5 27 21 23 59.9950000  0  3G 2G13G12
  20469291.952    -6334030.716 7  -4880343.98822
  18902388.687   -27115353.042 8 -19498403.54922
  22516845.0154   -4182218.46245  -2987963.24361
 92  5 27 21 24 29.9950000  0  3G 2G13G12
  20474077.429    -6308881.954 7  -4860747.59522
  18893162.038   -27163843.815 8 -19536188.52422
  22494757.273    -4298264.548 5  -3078388.71121
 92  5 27 21 24 59.9950000  0  3G 2G13G12
  20478900.5624   -6283537.64947  -4840998.83462
  18884040.038   -27211776.565 8 -19573538.68422
  22472686.5694   -4414282.42245  -3168792.18461
 92  5 27 21 25 29.9950000  0  3G 2G13G12
  20483759.062    -6258008.078 7  -4821105.70022
  18875023.733   -27259155.684 8 -19610457.44222
  22450615.390    -4530274.540 5  -3259175.59221
 92  5 27 21 25 59.9950000  0  3G 2G13G12
  20488648.694    -6232310.012 7  -4801081.28222
  18866113.726   -27305980.874 8 -19646944.56422
  22428544.921    -4646237.960 5  -3349536.64621
 92  5 27 21 26 29.9950000  0  3G 2G13G12
  20493568.687    -6206452.624 7  -4780932.70922
  18857310.171   -27352245.354 8 -19682994.77122
  22406486.288    -4762163.508 5  -3439868.15521
 92  5 27 21 26 59.9950000  0  4G 2G13G12G24
  20498522.476    -6180433.563 7  -4760658.16422
  18848612.976   -27397944.876 8 -19718604.75222
  22384433.2024   -4878044.49045  -3530164.96561
  23282057.7104         -0.39255
 92  5 27 21 27 29.9950000  0  4G 2G13G12G24
  20503498.702    -6154277.779 7  -4740277.08022
  18840020.296   -27443099.918 8 -19753790.46422
  22362383.9054   -4993898.81845  -3620440.98661
  23257458.5544    -129250.47445
 92  5 27 21 27 59.9950000  0  4G 2G13G12G24
  20508508.421    -6127954.507 7  -4719765.49022
  18831533.179   -27487693.828 8 -19788538.93122
  22340345.257    -5109707.646 5  -3710681.55721
  23232853.5544    -258554.11744
 92  5 27 21 28 29.9950000  0  4G 2G13G12G24
  20513556.280    -6101438.185 7  -4699103.46222
  18823157.382   -27531713.833 8 -19822840.19822
  22318321.7184   -5225456.20345  -3800875.16761
  23208241.288     -387888.210 4        -0.35831
 92  5 27 21 28 59.9950000  0  4G 2G13G12G24
  20518634.741    -6074731.975 7  -4678293.47322
  18814885.819   -27575180.083 8 -19856709.96522
  22296304.7184   -5341161.52345  -3891035.06061
  23183619.132     -517270.391 4   -100817.19521
 92  5 27 21 29 29.9950000  0  4G 2G13G12G24
  20523759.827    -6047810.140 7  -4657315.46122
  18806721.882   -27618085.009 8 -19890142.33722
  22274291.866    -5456813.987 5  -3981153.77721
  23158990.3354    -646696.88244   -201668.52261
 92  5 27 21 29 59.9950000  0  4G 2G13G12G24
  20528924.288    -6020673.925 7  -4636170.40622
  18798662.773   -27660435.527 8 -19923142.70422
  22252298.1554   -5572417.99045  -4071234.74961
  23134349.655     -776174.063 4   -302559.30921
 92  5 27 21 30 29.9950000  0  4G 2G13G12G24
  20534123.788    -5993334.828 7  -4614867.25722
  18790708.062   -27702232.950 8 -19955712.09022
  22230311.6164   -5687971.85145  -4161276.62161
  23109702.0154    -905712.14044   -403497.57061
 92  5 27 21 30 59.9950000  0  4G 2G13G12G24
  20539367.632    -5965780.475 7  -4593396.37722
  18782861.460   -27743468.668 8 -19987843.77522
  22208331.1944   -5803464.66545  -4251270.93261
  23085038.898    -1035309.517 4   -504481.98721
 92  5 27 21 31 29.9950000  0  4G 2G13G12G24
  20544652.515    -5938014.877 7  -4571760.89922
  18775121.991   -27784139.066 8 -20019534.95922
  22186366.0464   -5918890.34045  -4341212.95461
  23060362.163    -1164955.571 4   -605504.34421
 92  5 27 21 31 59.9950000  0  4G 2G13G12G24
  20549972.4134   -5910056.47947  -4549975.17462
  18767490.171   -27824248.377 8 -20050788.94021
  22164416.952    -6034250.126 5  -4431103.61421
  23035689.296    -1294635.978 5   -706553.47721
 92  5 27 21 32 29.9950000  0  4G 2G13G12G24
  20555332.694    -5881892.419 7  -4528029.20022
  18759967.491   -27863778.002 8 -20081591.20822
  22142479.0234   -6149522.87445  -4520926.45761
  23011009.015    -1424320.714 5   -807605.99421
 92  5 27 21 32 59.9950000  0  4G 2G13G12G24
  20560728.569    -5853540.592 7  -4505936.91222
  18752551.968   -27902746.359 8 -20111956.12721
  22120556.2884   -6264724.29645  -4610693.72561
  22986336.179    -1554005.220 5   -908658.29821
 92  5 27 21 33 29.9950000  0  4G 2G13G12G24
  20566154.671    -5825024.656 7  -4483716.73722
  18745242.835   -27941162.562 8 -20141890.79222
  22098645.3124   -6379860.93545  -4700410.50661
  22961656.7494   -1683680.05645  -1009703.10361
 92  5 27 21 33 59.9950000  0  4G 2G13G12G24
  20571611.515    -5796344.412 7  -4461368.54722
  18738036.819   -27979029.298 8 -20171397.30522
  22076750.421    -6494932.105 5  -4790076.27621
  22936981.444    -1813345.401 5  -1110740.54421
 92  5 27 21 34 29.9950000  0  4G 2G13G12G24
  20577101.827    -5767498.216 7  -4438891.03422
  18730934.1714  -28016350.40748 -20200478.65762
  22054863.9914   -6609938.84045  -4879691.83861
  22912304.733    -1943009.193 5  -1211776.77521
 92  5 27 21 34 59.9950000  0  4G 2G13G12G24
  20582626.3984   -5738465.77147  -4416268.40362
  18723937.405   -28053121.342 8 -20229131.30021
  22032992.710    -6724873.536 5  -4969251.25321
  22887629.2264   -2072669.61445  -1312810.33461
 92  5 27 21 35 29.9950000  0  4G 2G13G12G24
  20588183.5774   -5709253.98147  -4393506.01062
  18717042.702   -28089352.569 8 -20257363.39221
  22011131.5774   -6839744.19245  -5058760.78661
  22862954.8664   -2202348.52245  -1413858.36261
 92  5 27 21 35 59.9950000  0  4G 2G13G12G24
  20593782.843    -5679836.121 7  -4370583.05422
  18710252.483   -28125031.152 8 -20285164.85921
  21989289.2264   -6954534.84646  -5148207.97061
  22838273.233    -2332044.683 5  -1514919.78121
 92  5 27 21 36 29.9950000  0  4G 2G13G12G24
  20599420.6014   -5650211.69747  -4347499.14962
  18703566.569   -28160167.063 8 -20312543.46421
  21967460.2734   -7069252.46646  -5237598.24861
  22813589.4524   -2461762.45445  -1615998.10161
 92  5 27 21 36 59.9950000  0  4G 2G13G12G24
  20605093.1164   -5620391.96347  -4324263.03162
  18696982.124   -28194765.888 8 -20339503.55521
  21945643.2964   -7183899.65246  -5326933.64161
  22788900.6874   -2591506.89045  -1717097.16261
 92  5 27 21 37 29.9950000  0  4G 2G13G12G24
  20610807.4834   -5590377.23547  -4300874.99662
  18690503.280   -28228819.340 8 -20366038.67921
  21923841.444    -7298464.751 6  -5416205.06421
  22764209.1944   -2721263.62545  -1818205.79161
 92  5 27 21 37 59.9950000  0  4G 2G13G12G24
  20616552.3354   -5560172.99247  -4277339.28062
  18684124.632   -28262340.677 8 -20392159.17422
  21902054.804    -7412958.160 6  -5505420.63621
  22739512.452    -2851038.914 5  -1919328.88021
 92  5 27 21 38 29.9950000  0  4G 2G13G12G24
  20622338.999    -5529778.085 7  -4253654.98522
  18677848.398   -28295320.934 8 -20417858.04521
  21880284.4684   -7527368.61346  -5594571.57161
  22714815.546    -2980812.737 5  -2020450.82121
 92  5 27 21 38 59.9940000  0  4G 2G13G12G24
  20628157.7684   -5499195.64347  -4229824.57662
  18671675.963   -28327752.339 8 -20443129.24421
  21858532.1044   -7641681.73646  -5683646.65961
  22690124.385    -3110570.304 5  -2121560.09221
 92  5 27 21 39 29.9940000  0  4G 2G13G12G24
  20634015.893    -5468421.244 7  -4205844.58322
  18665609.354   -28359638.800 8 -20467975.80721
  21836791.9794   -7755903.21046  -5772650.33061
  22665434.7054   -3240315.87145  -2222660.05061
 92  5 27 21 39 59.9940000  0  4G 2G13G12G24
  20639903.525    -5437472.398 7  -4181728.66222
  18659643.666   -28390981.011 8 -20492398.28321
  21815075.1354   -7870028.33646  -5861578.92161
  22640745.4714   -3370047.85545  -2323749.40861
 92  5 27 21 40 29.9940000  0  4G 2G13G12G24
  20645824.455    -5406371.390 7  -4157494.16722
  18653781.236   -28421791.673 8 -20516406.56521
  21793374.268    -7984066.955 6  -5950440.10121
  22616057.8774   -3499779.05945  -2424838.15361
 92  5 27 21 40 59.9940000  0  4G 2G13G12G24
  20651769.2754   -5375114.61647  -4133138.31062
  18648019.057   -28452070.746 8 -20540000.62121
  21771688.1744   -8098014.69346  -6039230.48061
  22591372.854    -3629510.963 5  -2525927.47121
 92  5 27 21 41 29.9940000  0  4G 2G13G12G24
  20657751.8694   -5343693.20447  -4108654.16162
  18642360.260   -28481808.855 8 -20563173.14221
  21750028.6274   -8211859.92446  -6127940.96161
  22566683.104    -3759236.186 5  -2627011.56921
 92  5 27 21 41 59.9940000  0  4G 2G13G12G24
  20663761.072    -5312102.010 7  -4084037.72322
  18636804.072   -28511013.511 8 -20585929.98922
  21728379.2134   -8325606.06346  -6216574.24161
  22541999.3304   -3888960.17345  -2728094.72261
 92  5 27 21 42 29.9940000  0  4G 2G13G12G24
  20669808.213    -5280317.251 7  -4059270.44822
  18631345.947   -28539693.132 8 -20608277.71921
  21706751.7134   -8439258.31046  -6305134.35961
  22517316.924    -4018679.703 5  -2829174.41021
 92  5 27 21 42 59.9940000  0  4G 2G13G12G24
  20675899.8464   -5248316.71447  -4034335.02662
  18625991.791   -28567829.859 8 -20630202.41721
  21685148.8774   -8552795.92746  -6393605.16261
  22492636.6824   -4148375.83945  -2930235.86761
 92  5 27 21 43 29.9940000  0  4G 2G13G12G24
  20682027.557    -5216110.094 7  -4009239.01322
  18620736.6044  -28595443.84448 -20651719.78661
  21663566.0804   -8666235.07846  -6481999.22861
  22467956.986    -4278058.511 5  -3031286.84521
 92  5 27 21 43 59.9940000  0  4G 2G13G12G24
  20688200.5334   -5183673.34447  -3983963.69362
  18615583.6664  -28622522.23148 -20672819.80761
  21641997.1044   -8779559.54546  -6570303.93861
  22443284.7684   -4407694.18845  -3132301.24861
 92  5 27 21 44 29.9940000  0  4G 2G13G12G24
  20694415.072    -5151018.052 7  -3958518.08822
  18610532.0804  -28649061.90948 -20693500.05361
  21620458.4164   -8892763.12446  -6658514.44561
  22418624.7054   -4537267.45845  -3233267.05261
 92  5 27 21 44 59.9940000  0  4G 2G13G12G24
  20700665.2754   -5118172.50147  -3932924.22262
  18605582.150   -28675076.608 8 -20713771.22821
  21598931.3774   -9005855.80746  -6746638.54061
  22393976.3154   -4666795.39245  -3334197.50361
 92  5 27 21 45 29.9940000  0  4G 2G13G12G24
  20706949.6824   -5085129.10547  -3907176.22562
  18600731.0804  -28700558.90448 -20733627.55961
  21577433.9634   -9118826.32346  -6834667.47761
  22369344.377    -4796259.551 5  -3435078.28421
 92  5 27 21 45 59.9940000  0  4G 2G13G12G24
  20713269.6904   -5051882.65147  -3881270.03061
  18595976.627   -28725497.172 8 -20753060.03421
  21555954.5254   -9231659.63646  -6922589.53261
  22344708.182    -4925660.257 5  -3535909.68221
 92  5 27 21 46 29.9940000  0  4G 2G13G12G24
  20719626.7604   -5018458.62346  -3855225.37762
  18591331.4244  -28749907.64948 -20772081.15561
  21534506.2134   -9344368.89946  -7010414.86161
  22320090.033    -5055032.720 5  -3636719.01221
 92  5 27 21 46 59.9940000  0  4G 2G13G12G24
  20726025.268    -4984842.307 7  -3829030.90522
  18586787.5494  -28773781.95448 -20790684.49161
  21513082.8464   -9456941.90146  -7098134.01361
  22295475.330    -5184368.223 5  -3737499.56221
 92  5 27 21 47 29.9940000  0  4G 2G13G12G24
  20732457.0104   -4951040.66247  -3802692.03262
  18582344.0184  -28797131.27648 -20808878.75261
  21491687.0254   -9569385.62046  -7185752.42161
  22270869.7524   -5313663.37745  -3838248.68861
 92  5 27 21 47 59.9940000  0  4G 2G13G12G24
  20738925.775    -4917050.561 7  -3776206.31922
  18578001.3304  -28819955.23248 -20826663.63361
  21470312.0334   -9681696.25946  -7273267.13961
  22246277.111    -5442915.210 5  -3938964.04021
 92  5 27 21 48 29.9940000  0  4G 2G13G12G24
  20745429.729    -4882863.353 6  -3749567.03322
  18573758.6584  -28842246.34548 -20844033.32361
  21448969.4554   -9793862.80046  -7360669.58461
  22221695.315    -5572096.024 5  -4039624.09421
 92  5 27 21 48 59.9940000  0  4G 2G13G12G24
  20751979.6904   -4848446.09247  -3722748.45861
  18569621.8074  -28863988.48748 -20860975.23261
  21427657.0024   -9905865.83546  -7447944.60561
  22197128.377    -5701175.518 5  -4140205.17221
 92  5 27 21 49 29.9940000  0  4G 2G13G12G24
  20758571.0804   -4813808.37947  -3695758.11461
  18565584.8154  -28885198.42248 -20877502.43761
  21406368.580   -10017717.926 6  -7535102.02521
  22172582.0804   -5830172.37045  -4240721.87961
 92  5 27 21 49 59.9940000  0  4G 2G13G12G24
  20765202.9634   -4778951.04547  -3668596.61861
  18561648.627   -28905875.630 8 -20893614.52821
  21385119.252   -10129414.381 6  -7622138.16621
  22148050.182    -5959083.353 5  -4341171.66821
 92  5 27 21 50 29.9940000  0  4G 2G13G12G24
  20771874.354    -4743896.654 6  -3641281.57921
  18557811.3544  -28926048.53148 -20909333.65161
  21363883.3464  -10240980.36646  -7709072.63461
  22123532.1274   -6087928.11545  -4441569.84861
 92  5 27 21 50 59.9940000  0  4G 2G13G12G24
  20778588.6584   -4708617.59646  -3613791.51161
  18554073.268   -28945693.470 8 -20924641.37421
  21342684.9864  -10352388.08346  -7795883.78361
  22099030.252    -6216687.898 5  -4541901.82621
 92  5 27 21 51 29.9940000  0  4G 2G13G12G24
  20785341.041    -4673131.056 6  -3586139.75121
  18550434.1904  -28964814.40348 -20939540.79061
  21321516.096   -10463637.638 6  -7882571.68921
  22074539.6744   -6345365.02245  -4642169.36461
 92  5 27 21 51 59.9940000  0  4G 2G13G12G24
  20792134.9944   -4637423.93046  -3558316.08861
  18546896.8854  -28983397.59348 -20954021.17761
  21300376.1904  -10574711.31346  -7969122.53761
  22050074.799    -6473938.060 5  -4742355.83521
 92  5 27 21 52 29.9940000  0  4G 2G13G12G24
  20798967.6354   -4601509.83246  -3530331.15361
  18543460.2364  -29001455.84648 -20968092.53061
  21279270.5654  -10685617.42746  -8055542.83161
  22025624.760    -6602430.642 5  -4842479.59821
 92  5 27 21 52 59.9940000  0  4G 2G13G12G24
  20805842.6584   -4565393.81946  -3502188.86661
  18540125.3154  -29018980.19248 -20981747.85061
  21258203.5964  -10796344.37646  -8141823.50961
  22001188.6744   -6730836.13045  -4942535.52061
 92  5 27 21 53 29.9940000  0  4G 2G13G12G24
  20812751.518    -4529089.329 6  -3473899.73821
  18536889.6274  -29035978.36048 -20994993.16561
  21237166.4324  -10906895.40046  -8227967.10361
  21976770.4164   -6859152.01445  -5042521.60161
 92  5 27 21 53 59.9940000  0  4G 2G13G12G24
  20819693.8934   -4492607.08646  -3445472.08261
  18533753.9324  -29052460.86548 -21007836.66062
  21216157.2834  -11017276.54346  -8313978.32561
  21952368.565    -6987387.878 5  -5142445.32121
 92  5 27 21 54 29.9940000  0  4G 2G13G12G24
  20826667.3614   -4455946.31746  -3416905.33261
  18530716.2754  -29068429.48748 -21020279.73261
  21195188.1904  -11127485.87746  -8399855.67561
  21927979.525    -7115539.544 5  -5242303.46321
 92  5 27 21 54 59.9940000  0  4G 2G13G12G24
  20833681.6434   -4419090.01546  -3388186.20961
  18527775.3544  -29083880.02148 -21032319.09962
  21174249.9864  -11237514.88246  -8485592.50761
  21903613.619    -7243586.472 5  -5342079.96621
 92  5 27 21 55 29.9940000  0  4G 2G13G12G24
  20840734.690    -4382021.503 6  -3359301.73021
  18524933.3934  -29098813.64848 -21043955.67661
  21153345.3694  -11347360.92446  -8571186.77361
  21879267.549    -7371524.627 5  -5441771.75321
 92  5 27 21 55 59.9940000  0  4G 2G13G12G24
  20847830.846    -4344732.247 6  -3330245.24121
  18522189.0884  -29113237.04748 -21055194.68361
  21132478.6504  -11457026.62446  -8656640.51361
  21854941.5254   -7499357.84845  -5541381.74861
 92  5 27 21 56 29.9940000  0  4G 2G13G12G24
  20854975.9864   -4307198.70046  -3300998.40361
  18519544.3614  -29127134.87148 -21066024.14962
  21111649.6504  -11566492.28246  -8741938.37561
  21830637.7754   -7627062.75645  -5640891.74461
 92  5 27 21 56 59.9940000  0  4G 2G13G12G24
  20862167.322    -4269402.813 6  -3271547.10921
  18517001.7294  -29140494.00748 -21076433.85861
  21090853.8934  -11675741.14246  -8827067.29861
  21806362.690    -7754625.565 5  -5740291.01321
 92  5 27 21 57 29.9940000  0  4G 2G13G12G24
  20869404.1824   -4231370.31046  -3241911.47361
  18514557.0104  -29153340.10848 -21086443.79861
  21070104.4554  -11784794.31046  -8912043.74361
  21782112.4244   -7882070.65345  -5839598.56761
 92  5 27 21 57 59.9940000  0  4G 2G13G12G24
  20876684.6044   -4193108.58646  -3212097.22061
  18512207.8694  -29165681.71548 -21096060.61762
  21049388.5334  -11893655.84646  -8996870.84661
  21757880.6194   -8009402.26345  -5938817.68061
 92  5 27 21 58 29.9940000  0  4G 2G13G12G24
  20884007.752    -4154626.095 6  -3182110.95521
  18509955.9634  -29177520.09948 -21105285.32462
  21028712.791   -12002322.827 6  -9081546.36821
  21733672.955    -8136609.576 5  -6037939.92721
 92  5 27 21 58 59.9940000  0  4G 2G13G12G24
  20891372.3614   -4115933.83146  -3151961.21961
  18507796.4324  -29188869.19348 -21114128.76862
  21008066.0724  -12110805.18846  -9166078.01861
  21709488.3154   -8263698.09746  -6136969.63461
 92  5 27 21 59 29.9940000  0  4G 2G13G12G24
  20898769.947    -4077044.528 6  -3121657.94421
  18505728.1044  -29199731.80748 -21122593.13162
  20987458.2054  -12219101.73246  -9250464.87661
  21685329.9244   -8390658.74346  -6235899.69161
 92  5 27 21 59 59.9940000  0  4G 2G13G12G24
  20906212.2444   -4037947.04346  -3091192.43661
  18503757.3464  -29210090.09548 -21130664.51461
  20966889.596   -12327190.300 6  -9334689.67421
  21661202.166    -8517459.429 6  -6334705.09421
 92  5 27 22  0 29.9940000  0  4G 2G13G12G24
  20913692.604    -3998646.055 6  -3060568.39021
  18501883.2684  -29219940.37348 -21138340.04761
  20946359.6904  -12435062.35546  -9418745.75661
  21637102.0724   -8644091.67946  -6433379.24961
 92  5 27 22  0 59.9940000  0  4G 2G13G12G24
  20921204.775    -3959158.424 6  -3029798.87621
  18500101.8224  -29229300.94848 -21145634.00162
  20925872.9554  -12542732.26846  -9502644.32361
  21613030.8774   -8770582.60446  -6531943.27661
 92  5 27 22  1 29.9940000  0  4G 2G13G12G24
  20928755.135    -3919479.603 6  -2998880.39021
  18498416.0334  -29238162.69648 -21152539.25762
  20905424.9634  -12650186.88546  -9586375.12961
  21588991.0024   -8896918.62146  -6630386.60161
 92  5 27 22  1 59.9940000  0  4G 2G13G12G24
  20936346.713    -3879600.114 6  -2967805.56021
  18496825.4324  -29246523.17648 -21159053.91762
  20885020.2444  -12757419.02846  -9669932.58561
  21564979.9004   -9023110.26646  -6728717.43261
 92  5 27 22  2 29.9940000  0  4G 2G13G12G24
  20943972.432    -3839514.948 6  -2936570.45421
  18495328.5964  -29254386.65248 -21165181.30161
  20864657.1744  -12864428.56546  -9753316.56861
  21540989.619    -9149177.357 6  -6826951.20521
 92  5 27 22  2 59.9940000  0  4G 2G13G12G24
  20951641.4794   -3799213.49446  -2905166.78961
  18493927.7834  -29261747.03348 -21170916.66062
  20844337.1434  -12971204.93246  -9836518.87061
  21517022.8304   -9275106.08746  -6925077.17261
 92  5 27 22  3 29.9940000  0  4G 2G13G12G24
  20959352.7294   -3758693.24446  -2873592.65461
  18492621.9864  -29268606.15248 -21176261.43362
  20824066.127   -13077745.349 6  -9919537.32021
  21493085.9324   -9400884.98046  -7023086.39661
 92  5 27 22  3 59.9940000  0  4G 2G13G12G24
  20967106.275    -3717944.741 6  -2841840.65121
  18491413.5024  -29274965.41748 -21181216.69962
  20803837.4714  -13184047.02546 -10002369.73361
  21469182.299    -9526513.981 6  -7120978.79921
 92  5 27 22  4 29.9940000  0  4G 2G13G12G24
  20974905.7834   -3676962.72746  -2809906.68761
  18490298.6504  -29280822.05148 -21185780.30562
  20783654.604   -13290102.844 6 -10085010.57621
  21445308.7134   -9651971.50946  -7218737.60361
 92  5 27 22  4 59.9940000  0  4G 2G13G12G24
  20982746.0884   -3635765.42746  -2777804.98261
  18489274.4864  -29286200.05148 -21189970.94862
  20763514.6744  -13395932.43346 -10167475.12761
  21421465.1904   -9777261.40046  -7316365.77761
 92  5 27 22  5 29.9940000  0  4G 2G13G12G24
  20990629.1114   -3594334.60246  -2745521.32061
  18488342.9944  -29291096.84248 -21193786.62162
  20743419.5654  -13501528.45446 -10249757.68261
  21397654.299    -9902388.403 6  -7413867.03421
 92  5 27 22  5 59.9940000  0  4G 2G13G12G24
  20998554.0884   -3552678.15746  -2713061.83661
  18487500.3854  -29295521.41948 -21197234.32962
  20723372.7604  -13606895.20046 -10331861.59261
  21373874.541   -10027365.043 6  -7511251.12221
 92  5 27 22  6 29.9940000  0  4G 2G13G12G24
  21006522.650    -3510803.835 6  -2680432.58021
  18486748.8154  -29299471.47848 -21200312.28762
  20703364.346   -13712025.995 6 -10413781.64021
  21350121.4084  -10152181.04346  -7608510.03861
 92  5 27 22  6 59.9940000  0  4G 2G13G12G24
  21014535.6744   -3468706.30246  -2647629.38861
  18486088.7294  -29302940.06848 -21203015.07562
  20683404.650   -13816909.445 6 -10495508.95321
  21326400.9634  -10276823.65346  -7705633.85761
 92  5 27 22  7 29.9940000  0  4G 2G13G12G24
  21022587.635    -3426400.270 6  -2614663.74921
  18485520.3464  -29305932.34648 -21205346.70862
  20663492.705   -13921545.946 6 -10577043.85221
  21302715.463   -10401292.687 6  -7802622.42421
 92  5 27 22  7 59.9940000  0  4G 2G13G12G24
  21030674.6904   -3383899.22846  -2581546.13161
  18485040.6904  -29308443.55848 -21207303.48362
  20643629.596   -14025926.410 6 -10658379.22621
  21279066.7524  -10525562.75946  -7899455.96361
 92  5 27 22  8 29.9940000  0  4G 2G13G12G24
  21038799.150    -3341199.453 6  -2548273.66421
  18484655.9714  -29310472.35948 -21208884.35562
  20623817.846   -14130044.488 6 -10739510.14821
  21255460.768   -10649619.759 6  -7996123.48921
 92  5 27 22  8 59.9940000  0  4G 2G13G12G24
  21046961.315    -3298310.439 6  -2514853.77221
  18484355.0334  -29312048.97847 -21210112.88262
  20604048.979   -14233925.856 6 -10820456.63021
  21231889.635   -10773498.914 6  -8092652.41521
 92  5 27 22  9 29.9940000  0  4G 2G13G12G24
  21055160.7754   -3255222.58146  -2481278.90361
  18484143.7994  -29313171.92648 -21210987.89862
  20584327.979   -14337564.735 6 -10901214.15421
  21208347.1194  -10897200.56746  -8189043.04661
 92  5 27 22  9 59.9940000  0  4G 2G13G12G24
  21063403.174    -3211907.183 6  -2447526.74621
  18484016.8154  -29313821.12448 -21211493.76162
  20564657.666   -14440936.360 7 -10981763.42221
  21184843.4244  -11020702.46046  -8285278.01661
 92  5 27 22 10 29.9940000  0  4G 2G13G12G24
  21071689.3934   -3168361.24946  -2413594.93461
  18483980.8934  -29314011.91248
  20545033.361   -14544051.054 6 -11062112.47921
  21161378.1354  -11144022.15746  -8381371.02761
 92  5 27 22 10 59.9940000  0  4G 2G13G12G24
  21080018.268    -3124588.254 6  -2379486.18621
  18484033.9404  -29313747.30548
  20525460.8304  -14646907.02047 -11142259.93561
  21137946.3464  -11267157.83446  -8477320.64961
 92  5 27 22 11 29.9940000  0  4G 2G13G12G24
  21088390.5964   -3080611.99246  -2345219.07861
  18484167.4794  -29313035.88248 -21210881.86762
  20505936.7994  -14749508.42547 -11222209.03361
  21114548.0654  -11390104.90846  -8573123.31661
 92  5 27 22 11 59.9940000  0  4G 2G13G12G24
  21096792.0654   -3036436.79946  -2310796.95361
  18484385.5964  -29311881.67248 -21209982.47562
  20486461.2604  -14851854.64647 -11301959.27961
  21091187.2524  -11512869.96146  -8668784.15361
 92  5 27 22 12 29.9940000  0  4G 2G13G12G24
  21105240.916    -2992046.680 6  -2276207.32421
  18484694.8934  -29310272.53848 -21208728.59862
  20467036.822   -14953928.849 7 -11381497.56521
  21067862.4944  -11635447.06346  -8764298.52461
 92  5 27 22 12 59.9940000  0  4G 2G13G12G24
  21113730.213    -2947454.214 6  -2241460.06121
  18485085.8694  -29308214.15348 -21207124.65862
  20447665.7364  -15055731.80747 -11460824.48061
  21044570.3774  -11757838.48446  -8859668.22261
 92  5 27 22 13 29.9940000  0  4G 2G13G12G24
  21122248.7214   -2902669.21146  -2206562.75261
  18485558.3544  -29305723.38748 -21205183.79461
  20428342.057   -15157275.224 7 -11539949.16821
  21021314.315   -11880057.124 6  -8954903.29621
 92  5 27 22 13 59.9940000  0  4G 2G13G12G24
  21130812.8544   -2857674.06646  -2171501.66661
  18486117.9634  -29302790.97548 -21202898.79262
  20409069.6974  -15258545.60047 -11618861.09162
  20998092.5804  -12002087.22346  -9049991.44261
 92  5 27 22 14 29.9930000  0  4G 2G13G12G24
  21139412.099    -2812479.717 6  -2136285.39421
  18486757.3644  -29299426.08148 -21200276.78862
  20389850.396   -15359543.522 7 -11697560.71721
  20974908.716   -12123919.371 6  -9144925.37321
 92  5 27 22 14 59.9930000  0  4G 2G13G12G24
  21148049.8174   -2767080.78546  -2100909.68761
  18487479.3334  -29295627.17848 -21197316.60062
  20370682.9974  -15460270.21147 -11776048.98762
  20951765.372   -12245538.083 6  -9239692.95921
 92  5 27 22 15 29.9930000  0  4G 2G13G12G24
  21156736.763    -2721440.908 6  -2065346.23121
  18488289.4274  -29291371.66248 -21194000.61062
  20351573.2474  -15560693.95147 -11854301.20162
  20928669.1694  -12366904.54146  -9334264.00661
 92  5 27 22 15 59.9930000  0  4G 2G13G12G24
  21165463.4034   -2675575.43046  -2029606.96461
  18489185.0834  -29286675.39448 -21190341.17862
  20332517.419   -15660826.505 7 -11932326.51722
  20905616.2244  -12488038.02546  -9428653.51861
 92  5 27 22 16 29.9930000  0  4G 2G13G12G24
  21174236.942    -2629476.069 6  -1993685.48421
  18490162.2324  -29281535.59248 -21186336.13062
  20313521.732   -15760659.897 7 -12010118.71722
  20882613.880   -12608930.410 6  -9522855.14321
 92  5 27 22 16 59.9930000  0  4G 2G13G12G24
  21183051.6464   -2583160.24946  -1957595.30561
  18491220.8334  -29275973.84548 -21182002.30062
  20294577.4974  -15860210.52947 -12087690.58762
  20859650.169   -12729603.560 6  -9616885.96821
 92  5 27 22 17 29.9930000  0  4G 2G13G12G24
  21191905.599    -2536633.754 6  -1921341.00421
  18492359.9114  -29269981.96347 -21177333.28962
  20275688.810   -15959465.597 7 -12165032.15522
  20836724.497   -12850069.853 6  -9710755.59121
 92  5 27 22 17 59.9930000  0  4G 2G13G12G24
  21200791.9974   -2489930.86446  -1884949.22361
  18493577.9894  -29263574.20647 -21172340.22862
  20256856.005   -16058435.080 7 -12242151.18022
  20813834.802   -12970353.773 6  -9804483.11221
 92  5 27 22 18 29.9930000  0  4G 2G13G12G24
  21209715.2554   -2443035.19346  -1848407.21861
  18494879.8494  -29256742.39448 -21167016.73262
  20238081.3644  -16157105.67647 -12319037.30662
  20790985.4424  -13090433.31046  -9898051.40461
 92  5 27 22 18 59.9930000  0  4G 2G13G12G24
  21218675.5284   -2395947.03646  -1811715.28361
  18496262.1694  -29249480.01548 -21161357.72262
  20219362.786   -16255465.449 7 -12395681.24022
  20768173.5054  -13210303.31146  -9991456.40161
 92  5 27 22 19 29.9930000  0  4G 2G13G12G24
  21227669.333    -2348689.697 6  -1774891.47221
  18497719.2324  -29241815.85848 -21155385.65162
  20200698.021   -16353538.209 7 -12472101.51722
  20745402.3174  -13329971.63846 -10084704.25061
 92  5 27 22 19 59.9930000  0  4G 2G13G12G24
  21236701.6774   -2301219.54146  -1737901.87261
  18499258.3644  -29233735.49348 -21149089.25662
  20182095.9824  -16451305.30547 -12548283.61862
  20722679.216   -13449386.154 6 -10177754.35421
 92  5 27 22 20 29.9930000  0  4G 2G13G12G24
  21245785.5604   -2253496.38646  -1700715.10461
  18500879.3104  -29225216.68648 -21142451.22262
  20163555.6464  -16548739.32547 -12624206.17262
  20700011.3724  -13568501.47446 -10270571.30561
 92  5 27 22 20 59.9930000  0  4G 2G13G12G24
  21254908.0754   -2205545.90346  -1663351.17561
  18502580.3254  -29216274.66248 -21135483.40762
  20145073.8884  -16645850.44847 -12699877.13062
  20677398.9744  -13687329.80446 -10363164.62661
 92  5 27 22 21 29.9930000  0  4G 2G13G12G24
  21264075.5134   -2157373.08746  -1625814.03761
  18504359.0284  -29206925.00748 -21128197.95862
  20126652.1464  -16742649.60147 -12775304.97762
  20654839.7324  -13805877.12346 -10455538.98161
 92  5 27 22 21 59.9930000  0  4G 2G13G12G24
  21273286.419    -2108973.851 6  -1588100.47221
  18506218.3964  -29197159.39848 -21120588.39062
  20108296.2554  -16839123.07847 -12850479.06062
  20632332.021   -13924149.981 6 -10547699.49521
 92  5 27 22 22 29.9930000  0  4G 2G13G12G24
  21282537.583    -2060350.710 6  -1550212.44721
  18508159.2944  -29186959.20148 -21112640.17962
  20090001.771   -16935247.516 7 -12925381.17022
  20609879.560   -14042147.395 6 -10639645.34921
 92  5 27 22 22 59.9930000  0  4G 2G13G12G24
  21291829.7004   -2011518.14646  -1512161.22361
  18510181.1144  -29176329.88347 -21104357.58462
  20071778.7634  -17031023.75347 -13000011.94562
  20587474.146   -14159887.383 6 -10731390.61221
 92  5 27 22 23 29.9930000  0  4G 2G13G12G24
  21301163.2944   -1962477.37546  -1473947.76161
  18512284.1304  -29165286.50448 -21095752.34762
  20053616.739   -17126461.528 7 -13074378.99122
  20565114.982   -14277385.265 6 -10822947.25121
 92  5 27 22 23 59.9930000  0  4G 2G13G12G24
  21310534.3024   -1913230.85646  -1435573.96361
  18514463.6924  -29153828.36547 -21086823.92862
  20035521.685   -17221554.885 7 -13148477.66022
  20542802.919   -14394644.017 6 -10914317.53821
 92  5 27 22 24 29.9930000  0  4G 2G13G12G24
  21319949.5994   -1863762.42046  -1397027.25461
  18516723.7784  -29141953.44548 -21077570.74162
  20017491.591   -17316297.528 7 -13222303.04722
  20520535.989   -14511647.639 6 -11005489.03621
 92  5 27 22 24 59.9930000  0  4G 2G13G12G24
  21329407.716    -1814050.752 6  -1358291.01621
  18519062.6384  -29129659.18947 -21067990.79862
  19999531.4034  -17410682.02647 -13295849.35962
  20498322.466   -14628374.835 6 -11096445.13121
 92  5 27 22 25 29.9930000  0  4G 2G13G12G24
  21338916.497    -1764086.968 6  -1319358.30521
  18521480.4894  -29116951.69347 -21058088.84762
  19981640.200   -17504708.959 7 -13369117.05922
  20476163.138   -14744820.136 6 -11187181.57921
 92  5 27 22 25 59.9930000  0  4G 2G13G12G24
  21348469.200    -1713885.539 6  -1280240.43321
  18523977.0054  -29103835.68447 -21047868.58462
  19963813.896   -17598378.192 7 -13442106.01822
  20454062.630   -14860969.092 6 -11277687.10521
 92  5 27 22 26 29.9930000  0  4G 2G13G12G24
  21358067.442    -1663440.178 6  -1240932.51021
  18526551.7714  -29090304.49047 -21037324.80462
  19946058.911   -17691677.801 7 -13514806.97622
  20432019.880   -14976796.109 6 -11367941.77921
 92  5 27 22 26 59.9930000  0  4G 2G13G12G24
  21367708.6304   -1612777.65546  -1201455.32161
  18529203.0364  -29076370.57948 -21026467.20862
  19928371.833   -17784615.256 7 -13587225.72722
  20410039.4194  -15092310.43246 -11457952.79261
 92  5 27 22 27 29.9930000  0  4G 2G13G12G24
  21377391.708    -1561904.903 6  -1161814.32921
  18531930.5524  -29062034.91447 -21015296.56362
  19910758.005   -17877186.717 7 -13659359.29422
  20388116.575   -15207510.497 6 -11547718.94721
 92  5 27 22 27 59.9930000  0  4G 2G13G12G24
  21387110.3574   -1510831.66546  -1122017.09161
  18534732.6144  -29047304.46847 -21003818.29162
  19893211.271   -17969394.082 7 -13731209.14422
  20366253.7714  -15322390.24546 -11637235.49261
 92  5 27 22 28 29.9930000  0  4G 2G13G12G24
  21396869.0524   -1459547.50046  -1082055.52861
  18537612.5284  -29032183.07648 -20992035.38962
  19875735.114   -18061236.566 7 -13802774.67722
  20344454.044   -15436964.603 6 -11726514.06321
 92  5 27 22 28 59.9930000  0  4G 2G13G12G24
  21406671.8254   -1408032.30146  -1041913.93461
  18540565.1534  -29016665.83247 -20979944.03062
  19858328.716   -18152703.944 7 -13874047.91722
  20322705.5674  -15551237.13446 -11815557.46461
 92  5 27 22 29 29.9930000  0  4G 2G13G12G24
  21416520.4894   -1356270.15646  -1001579.91161
  18543593.3724  -29000752.29047 -20967543.87662
  19840994.919   -18243790.673 7 -13945024.54022
  20301019.880   -15665204.245 6 -11904362.86021
 92  5 27 22 29 59.9930000  0  4G 2G13G12G24
  21426415.1614   -1304278.84846   -961067.30961
  18546693.5214  -28984460.82748 -20954849.22662
  19823731.708   -18334510.908 7 -14015715.58822
  20279384.0524  -15778899.09546 -11992956.11261
 92  5 27 22 30 29.9930000  0  4G 2G13G12G24
  21436349.122    -1252074.765 6   -920388.91021
  18549862.2474  -28967802.95547 -20941869.06762
  19806535.669   -18424870.641 7 -14086125.71822
  20257798.505   -15892332.777 6 -12081345.85421
 92  5 27 22 30 59.9930000  0  4G 2G13G12G24
  21446325.8104   -1199650.58645   -879539.00961
  18553104.7324  -28950773.88647 -20928599.66962
  19789413.0524  -18514859.87047 -14156247.14862
  20236265.825   -16005491.094 6 -12169521.03521
 92  5 27 22 31 29.9930000  0  4G 2G13G12G24
  21456339.2004   -1147017.49245   -838526.32961
  18556414.5444  -28933371.13147 -20915039.07962
  19772361.302   -18604470.788 7 -14226073.79222
  20214786.3254  -16118359.35546 -12257470.19162
 92  5 27 22 31 59.9930000  0  4G 2G13G12G24
  21466393.521    -1094199.964 5   -797369.91421
  18559795.7634  -28915606.82248 -20901196.75962
  19755377.271   -18693711.115 7 -14295611.65822
  20193365.2634  -16230935.61846 -12345191.82161
 92  5 27 22 32 29.9930000  0  4G 2G13G12G24
  21476483.474    -1041178.463 5   -756054.55521
  18563245.9504  -28897473.25447 -20887066.70662
  19738468.067   -18782568.143 7 -14364850.84422
  20172002.013   -16343196.675 6 -12432667.82622
 92  5 27 22 32 59.9930000  0  4G 2G13G12G24
  21486613.364     -987945.858 5   -714574.71421
  18566767.7714  -28878970.59247 -20872649.04362
  19721633.4504  -18871036.60147 -14433787.24962
  20150699.989   -16455139.591 6 -12519895.92522
 92  5 27 22 33 29.9930000  0  4G 2G13G12G24
  21496778.583     -934504.171 5   -672931.96021
  18570359.4824  -28860093.54248 -20857939.64962
  19704874.692   -18959106.569 7 -14502413.14822
  20129458.5834  -16566753.89946 -12606867.98662
 92  5 27 22 33 59.9930000  0  4G 2G13G12G24
  21506993.864     -880847.008 5   -631121.29421
  18574020.0604  -28840853.32847 -20842947.26662
  19688191.169   -19046784.151 7 -14570733.29122
  20108281.7634  -16678050.05846 -12693592.13262
 92  5 27 22 34 29.9930000  0  4G 2G13G12G24
  21517245.8724    -826964.39845   -589135.01561
  18577750.6774  -28821251.33447 -20827672.98362
  19671581.771   -19134065.500 7 -14638744.68422
  20087160.2634  -16789035.65846 -12780074.27361
 92  5 27 22 34 59.9930000  0  4G 2G13G12G24
  21527541.708     -772855.807 5   -546972.56121
  18581550.9034  -28801276.99147 -20812108.55562
  19655051.583   -19220935.154 7 -14706435.28022
  20066105.872   -16899684.790 6 -12866294.23022
 92  5 27 22 35 29.9930000  0  4G 2G13G12G24
  21537882.716     -718520.785 5   -504633.71321
  18585424.1384  -28780930.03747 -20796253.78362
  19638597.146   -19307388.392 7 -14773801.39722
  20045114.919   -17009987.190 6 -12952244.01622
 92  5 27 22 35 59.9930000  0  4G 2G13G12G24
  21548263.4114    -663970.71745   -462127.28761
  18589365.1774  -28760218.14947 -20780114.65162
  19622226.013   -19393427.070 7 -14840844.48722
  20024192.474   -17119938.070 6 -13037919.88122
 92  5 27 22 36 29.9930000  0  4G 2G13G12G24
  21558684.083     -609219.313 5   -419464.01321
  18593373.4584  -28739151.18347 -20763698.82362
  19605933.317   -19479056.302 7 -14907568.52322
  20003334.911   -17229532.991 6 -13123318.39022
 92  5 27 22 36 59.9930000  0  4G 2G13G12G24
  21569140.5604    -554259.70845   -376638.46061
  18597451.6614  -28717723.18047 -20747001.68462
  19589716.747   -19564265.182 7 -14973965.01722
  19982553.1384  -17338755.84246 -13208426.97262
 92  5 27 22 37 29.9930000  0  4G 2G13G12G24
  21579639.536     -499085.335 5   -333645.56821
  18601595.9354  -28695939.05247 -20730027.04062
  19573582.052   -19649053.750 7 -15040034.00522
  19961836.4824  -17447621.15747 -13293256.94062
 92  5 27 22 37 59.9930000  0  4G 2G13G12G24
  21590181.161     -443697.815 5   -290486.58021
  18605808.4034  -28673810.47147 -20712783.99262
  19557526.224   -19733429.346 7 -15105781.18922
  19941183.3574  -17556149.38947 -13377824.25461
 92  5 27 22 38 29.9930000  0  4G 2G13G12G24
  21600763.317     -388082.749 5   -247150.30421
  18610083.6224  -28651344.49347 -20695278.03062
  19541548.771   -19817393.365 7 -15171207.67122
  19920593.794   -17664349.204 7 -13462135.66221
 92  5 27 22 38 59.9930000  0  4G 2G13G12G24
  21611391.474     -332229.900 5   -203628.76221
  18614423.7944  -28628529.17747 -20677499.85962
  19525649.794   -19900928.975 7 -15236300.32022
  19900070.5674  -17772207.51747 -13546180.97762
 92  5 27 22 39 29.9930000  0  4G 2G13G12G24
  21622067.950     -276123.459 5   -159909.63521
  18618835.9274  -28605352.34847 -20659439.99962
  19509838.607   -19984018.931 7 -15301045.70722
  19879610.6304  -17879709.54846 -13629948.68162
 92  5 27 22 39 59.9930000  0  4G 2G13G12G24
  21632790.028     -219784.258 5   -116009.08921
  18623311.1074  -28581832.14448 -20641112.57162
  19494109.036   -20066676.205 7 -15365453.94522
  19859220.224   -17986856.311 6 -13713439.55422
 92  5 27 22 40 29.9930000  0  4G 2G13G12G24
  21643552.380     -163225.943 5    -71937.80621
  18627850.0444  -28557979.70647 -20622526.26062
  19478463.817   -20148906.740 7 -15429529.64622
  19838900.677   -18093636.434 6 -13796644.71422
 92  5 27 22 40 59.9930000  0  4G 2G13G12G24
  21654357.0914    -106442.63445    -27691.24961
  18632453.6534  -28533782.36247 -20603671.18762
  19462899.107   -20230693.553 7 -15493259.59722
  19818653.5444  -18200041.03946 -13879557.26161
 92  5 27 22 41 29.9930000  0  4G 2G13G12G24
  21665203.9584     -49451.43945     16717.32061
  18637119.7004  -28509264.89947 -20584566.68062
  19447417.138   -20312056.949 7 -15556659.60822
  19798472.0284  -18306095.21147 -13962196.74661
 92  5 27 22 41 59.9930000  0  4G 2G13G12G24
  21676086.8254       7745.29845     61286.06461
  18641845.8574  -28484423.36647 -20565209.64462
  19432015.755   -20392987.501 7 -15619722.34122
  19778360.1854  -18411793.56847 -14044558.96961
 92  5 27 22 42 29.9930000  0  4G 2G13G12G24
  21687014.692       65153.201 5    106019.35221
  18646637.2244  -28459247.07647 -20545591.76862
  19416701.3884  -20473469.23047 -15682435.33162
  19758314.6614  -18517130.75247 -14126639.77962
 92  5 27 22 42 59.9930000  0  4G 2G13G12G24
  21697972.357      122772.398 5    150917.31721
  18651490.2004  -28433742.16447 -20525717.82162
  19401473.075   -20553503.543 7 -15744799.69522
  19738335.9424  -18622117.71047 -14208447.70262
 92  5 27 22 43 29.9930000  0  4G 2G13G12G24
  21708982.466      180599.256 5    195977.03821
  18656406.8414  -28407913.87547 -20505591.89462
  19386326.021   -20633091.102 7 -15806815.93422
  19718426.1304  -18726740.86947 -14289972.14162
 92  5 27 22 43 59.9930000  0  4G 2G13G12G24
  21720023.317      238629.823 5    241195.48521
  18661380.5444  -28381770.20247 -20485220.21762
  19371264.380   -20712234.958 7 -15868486.43422
  19698584.380   -18830995.244 7 -14371209.21222
 92  5 27 22 44 29.9930000  0  4G 2G13G12G24
  21731111.9424     296896.74644    286598.15261
  18666419.6384  -28355294.98947 -20464590.18762
  19356293.021   -20790913.722 7 -15929794.52522
  19678825.0134  -18934842.43147 -14452128.97962
 92  5 27 22 44 59.9930000  0  4G 2G13G12G24
  21742242.638      355389.328 5    332176.62321
  18671515.9354  -28328506.83047 -20443716.30362
  19341405.989   -20869141.759 7 -15990751.40422
  19659140.4424  -19038293.55347 -14532740.11762
 92  5 27 22 45 29.9930000  0  4G 2G13G12G24
  21753410.630      414078.141 4    377908.03721
  18676671.0444  -28301420.72447 -20422610.26262
  19326604.857   -20946928.695 7 -16051364.56222
  19639528.880   -19141356.332 7 -14613048.65422
 92  5 27 22 45 59.9930000  0  4G 2G13G12G24
  21764617.583      472955.357 5    423786.24521
  18681882.5604  -28274038.07347 -20401273.13762
  19311885.9894  -21024270.76047 -16111631.08062
  19619990.005   -19244027.777 7 -14693052.27422
 92  5 27 22 46 29.9930000  0  4G 2G13G12G24
  21775849.2004     531999.62744    469794.60161
  18687147.6074  -28246369.97147 -20379713.59262
  19297252.0834  -21101174.53047 -16171556.07562
  19600522.0754  -19346325.88547 -14772764.98162
 92  5 27 22 46 59.9930000  0  4G 2G13G12G24
  21787124.919      591227.385 5    515945.95321
  18692470.6384  -28218400.56648 -20357919.25762
  19282705.724   -21177619.781 7 -16231123.78122
  19581124.2394  -19448246.02046 -14852183.14762
 92  5 27 22 47 29.9930000  0  4G 2G13G12G24
  21798434.708      650671.494 5    562265.89321
  18697853.5284  -28190108.33647 -20335873.37262
  19268252.692   -21253579.494 7 -16290313.14822
  19561810.177   -19549762.201 7 -14931286.53422
 92  5 27 22 47 59.9930000  0  4G 2G13G12G24
  21809785.2394     710326.51544    608750.16061
  18703294.0284  -28161512.80447 -20313591.14862
  19253886.2864  -21329068.25047 -16349135.53863
  19542562.9894  -19650901.61247 -15010096.34562
 92  5 27 22 48 29.9930000  0  4G 2G13G12G24
  21821181.528      770203.734 4    655407.58921
  18708794.6774  -28132611.52847 -20291070.68762
  19239611.9354  -21404079.47747 -16407585.82762
  19523387.0444  -19751672.26747 -15088618.82062
 92  5 27 22 48 59.9930000  0  4G 2G13G12G24
  21832611.8964     830277.83344    702218.37661
  18714347.0444  -28103434.49247 -20268335.34862
  19225423.7634  -21478637.82447 -16465683.22162
  19504277.7084  -19852090.33147 -15166866.55762
 92  5 27 22 49 29.9930000  0  4G 2G13G12G24
  21844079.278      890537.930 5    749174.11621
  18719952.9274  -28073974.80847 -20245379.76362
  19211323.4354  -21552732.16147 -16523419.05262
  19485238.5754  -19952145.04647 -15244831.15862
 92  5 27 22 49 59.9930000  0  4G 2G13G12G24
  21855577.7864     950976.79044    796269.17161
  18725612.1074  -28044234.04947 -20222205.15962
  19197312.5524  -21626358.78747 -16580790.42662
  19466270.427   -20051823.121 7 -15322502.26022
 92  5 27 22 50 29.9920000  0  4G 2G13G12G24
  21867120.305     1011612.264 4    843517.48521
  18731327.0704  -28014203.66447 -20198804.87462
  19183394.758   -21699501.163 7 -16637784.47122
  19447381.609   -20151089.204 7 -15399852.33222
 92  5 27 22 50 59.9920000  0  4G 2G13G12G24
  21878696.727     1072456.042 4
  18737095.4534  -27983889.14947 -20175183.19162
  19169566.6094  -21772167.13447 -16694407.28762
  19428570.4534  -20249937.87447 -15476877.16062
 92  5 27 22 51 29.9920000  0  4G 2G13G12G24
  21890321.5704    1133534.96643        -0.28171
  18742920.6954  -27953275.19847 -20151328.17562
  19155833.383   -21844333.012 7 -16750640.41622
  19409841.734   -20348357.466 7 -15553567.64022
 92  5 27 22 51 59.9920000  0  4G 2G13G12G24
  21901987.6174    1194846.17543     47774.53461
  18748800.1254  -27922383.22747 -20127256.52662
  19142192.149   -21916015.668 7 -16806497.00022
  19391189.320   -20446367.222 7 -15629938.76322
 92  5 27 22 52 29.9920000  0  4G 2G13G12G24
  21913699.6724    1256382.96443     95725.09461
  18754730.9144  -27891213.55247 -20102968.48662
  19128645.805   -21987210.810 7 -16861973.71322
  19372614.6564  -20543981.60647 -15706001.80362
 92  5 27 22 52 59.9920000  0  4G 2G13G12G24
  21925446.2814    1318142.59742    143849.33661
  18760716.7974  -27859758.92147 -20078458.40262
  19115191.7504  -22057906.84047 -16917061.50462
  19354114.625   -20641202.475 7 -15781758.21322
 92  5 27 22 53 29.9920000  0  3G13G12G24
  18766755.5634  -27828026.95747 -20053732.20862
  19101834.117   -22128105.679 7 -16971761.87122
  19335686.703   -20738036.598 7 -15857213.27022
 92  5 27 22 53 59.9920000  0  3G13G12G24
  18772847.6494  -27796010.36447 -20028784.22962
  19088571.813   -22197795.412 7 -17026065.53022
  19317340.617   -20834448.679 7 -15932339.46122
 92  5 27 22 54 29.9920000  0  3G13G12G24
  18778992.3284  -27763720.88447 -20003623.60962
  19075406.617   -22266983.926 7 -17079978.62622
  19299074.8754  -20930430.80747 -16007130.62762
 92  5 27 22 54 59.9920000  0  3G13G12G24
  18785190.1094  -27731148.95747 -19978242.90362
  19062335.766   -22335656.972 7 -17133490.06622
  19280900.524   -21025945.401 7 -16081557.48122
 92  5 27 22 55 29.9920000  0  3G13G12G24
  18791442.4304  -27698293.60947 -19952641.34462
  19049370.586   -22403809.044 7 -17186595.54522
  19262816.891   -21120973.386 7 -16155605.16322
 92  5 27 22 55 59.9920000  0  3G13G12G24
  18797746.2814  -27665169.66047 -19926830.48562
  19036497.375   -22471450.412 7 -17239303.07722
  19244822.484   -21215532.629 7 -16229287.58522
 92  5 27 22 56 29.9920000  0  3G13G12G24
  18804099.3284  -27631780.28147 -19900812.80762
  19023720.992   -22538579.316 7 -17291611.27823
  19226913.500   -21309642.941 7 -16302620.19822
 92  5 27 22 56 59.9920000  0  3G13G12G24
  18810502.6094  -27598137.38147 -19874597.56862
  19011044.344   -22605202.710 7 -17343525.58022
  19209087.172   -21403325.237 7 -16375619.28022
